Wetterdaten: Donnerstag, 06.04.2017
Datum Zeit Temp. Aussen Temp. o. S. +5cm Feuchte Auss BlattFeu 1 Luftdruck Regen Sonnenschein Regendauer Solar Windben Empfang
06.04.2017 00:00 6,8 C 6,7 C 5,6 C 84 % 0 lf 1025,9 hPa 0,0 l/m 0 min 0 min 0 W/m 8,4 km/h (2 Bft) 93,62 %
06.04.2017 00:02 6,8 C 6,7 C 5,6 C 84 % 0 lf 1026,0 hPa 0,0 l/m 0 min 0 min 0 W/m 6,3 km/h (2 Bft) 90,70 %
06.04.2017 00:04 6,8 C 6,7 C 5,6 C 84 % 0 lf 1026,0 hPa 0,0 l/m 0 min 0 min 0 W/m 8,4 km/h (2 Bft) 93,48 %
06.04.2017 00:06 6,8 C 6,7 C 5,0 C 84 % 0 lf 1026,0 hPa 0,0 l/m 0 min 0 min 0 W/m 8,4 km/h (2 Bft) 87,23 %
06.04.2017 00:08 6,8 C 6,7 C 5,0 C 84 % 0 lf 1026,1 hPa 0,0 l/m 0 min 0 min 0 W/m 8,4 km/h (2 Bft) 87,50 %
06.04.2017 00:10 6,8 C 6,1 C 5,0 C 84 % 0 lf 1026,1 hPa 0,0 l/m 0 min 0 min 0 W/m 8,4 km/h (2 Bft) 85,11 %
06.04.2017 00:12 6,8 C 6,1 C 4,4 C 84 % 0 lf 1026,1 hPa 0,0 l/m 0 min 0 min 0 W/m 10,5 km/h (2 Bft) 91,49 %
06.04.2017 00:14 6,8 C 6,1 C 4,4 C 84 % 0 lf 1026,0 hPa 0,0 l/m 0 min 0 min 0 W/m 10,5 km/h (2 Bft) 91,49 %
06.04.2017 00:16 6,7 C 6,1 C 4,4 C 84 % 0 lf 1026,0 hPa 0,0 l/m 0 min 0 min 0 W/m 10,5 km/h (2 Bft) 87,23 %
06.04.2017 00:18 6,7 C 6,1 C 4,4 C 84 % 0 lf 1026,0 hPa 0,0 l/m 0 min 0 min 0 W/m 10,5 km/h (2 Bft) 84,78 %
06.04.2017 00:20 6,7 C 5,6 C 4,4 C 84 % 0 lf 1026,2 hPa 0,0 l/m 0 min 0 min 0 W/m 8,4 km/h (2 Bft) 91,49 %
06.04.2017 00:22 6,7 C 6,1 C 4,4 C 83 % 0 lf 1026,2 hPa 0,0 l/m 0 min 0 min 0 W/m 8,4 km/h (2 Bft) 91,49 %
06.04.2017 00:24 6,7 C 6,1 C 4,4 C 83 % 0 lf 1026,1 hPa 0,0 l/m 0 min 0 min 0 W/m 10,5 km/h (2 Bft) 91,49 %
06.04.2017 00:26 6,7 C 6,1 C 4,4 C 83 % 0 lf 1026,2 hPa 0,0 l/m 0 min 0 min 0 W/m 8,4 km/h (2 Bft) 93,62 %
06.04.2017 00:28 6,7 C 6,1 C 4,4 C 83 % 0 lf 1026,1 hPa 0,0 l/m 0 min 0 min 0 W/m 8,4 km/h (2 Bft) 91,30 %
06.04.2017 00:30 6,6 C 6,1 C 5,0 C 84 % 0 lf 1026,1 hPa 0,0 l/m 0 min 0 min 0 W/m 14,6 km/h (3 Bft) 91,49 %
06.04.2017 00:32 6,6 C 6,1 C 5,0 C 84 % 0 lf 1026,1 hPa 0,0 l/m 0 min 0 min 0 W/m 10,5 km/h (2 Bft) 91,67 %
06.04.2017 00:34 6,6 C 6,1 C 5,0 C 84 % 0 lf 1026,1 hPa 0,0 l/m 0 min 0 min 0 W/m 10,5 km/h (2 Bft) 89,13 %
06.04.2017 00:36 6,6 C 6,1 C 5,0 C 84 % 0 lf 1026,1 hPa 0,0 l/m 0 min 0 min 0 W/m 10,5 km/h (2 Bft) 93,62 %
06.04.2017 00:38 6,6 C 6,1 C 5,0 C 84 % 0 lf 1026,0 hPa 0,0 l/m 0 min 0 min 0 W/m 6,3 km/h (2 Bft) 95,74 %
06.04.2017 00:40 6,6 C 6,7 C 5,0 C 85 % 0 lf 1026,1 hPa 0,0 l/m 0 min 0 min 0 W/m 14,6 km/h (3 Bft) 97,87 %
06.04.2017 00:42 6,6 C 6,7 C 5,0 C 85 % 0 lf 1026,1 hPa 0,0 l/m 0 min 0 min 0 W/m 12,6 km/h (3 Bft) 95,74 %
06.04.2017 00:44 6,6 C 6,7 C 5,6 C 85 % 0 lf 1026,0 hPa 0,0 l/m 0 min 0 min 0 W/m 14,6 km/h (3 Bft) 95,74 %
06.04.2017 00:46 6,6 C 6,7 C 5,6 C 85 % 0 lf 1026,0 hPa 0,0 l/m 0 min 0 min 0 W/m 10,5 km/h (2 Bft) 95,65 %
06.04.2017 00:48 6,6 C 6,7 C 5,6 C 85 % 0 lf 1026,0 hPa 0,0 l/m 0 min 0 min 0 W/m 16,7 km/h (3 Bft) 95,74 %
06.04.2017 00:50 6,6 C 6,7 C 5,6 C 86 % 8 lf 1026,2 hPa 0,0 l/m 0 min 2 min 0 W/m 18,8 km/h (3 Bft) 94,92 %
06.04.2017 00:52 6,6 C 6,7 C 5,6 C 86 % 15 lf 1026,2 hPa 0,0 l/m 0 min 2 min 0 W/m 29,3 km/h (5 Bft) 97,14 %
06.04.2017 00:54 6,7 C 6,7 C 5,0 C 86 % 15 lf 1026,2 hPa 0,0 l/m 0 min 2 min 0 W/m 31,4 km/h (5 Bft) 97,87 %
06.04.2017 00:56 6,7 C 6,1 C 5,0 C 86 % 15 lf 1026,2 hPa 0,0 l/m 0 min 2 min 0 W/m 29,3 km/h (5 Bft) 95,65 %
06.04.2017 00:58 6,7 C 6,1 C 4,4 C 87 % 15 lf 1026,2 hPa 0,0 l/m 0 min 2 min 0 W/m 14,6 km/h (3 Bft) 93,62 %
06.04.2017 01:00 6,7 C 6,1 C 4,4 C 87 % 15 lf 1026,1 hPa 0,0 l/m 0 min 2 min 0 W/m 10,5 km/h (2 Bft) 95,74 %
06.04.2017 01:02 6,7 C 6,1 C 4,4 C 87 % 15 lf 1026,0 hPa 0,0 l/m 0 min 2 min 0 W/m 12,6 km/h (3 Bft) 93,62 %
06.04.2017 01:04 6,7 C 6,1 C 4,4 C 87 % 15 lf 1026,0 hPa 0,0 l/m 0 min 0 min 0 W/m 10,5 km/h (2 Bft) 95,74 %
06.04.2017 01:06 6,7 C 6,1 C 4,4 C 87 % 15 lf 1026,0 hPa 0,0 l/m 0 min 0 min 0 W/m 8,4 km/h (2 Bft) 97,87 %
06.04.2017 01:08 6,7 C 6,1 C 4,4 C 87 % 15 lf 1025,9 hPa 0,0 l/m 0 min 0 min 0 W/m 16,7 km/h (3 Bft) 97,83 %
06.04.2017 01:10 6,7 C 5,6 C 4,4 C 87 % 15 lf 1026,0 hPa 0,0 l/m 0 min 0 min 0 W/m 12,6 km/h (3 Bft) 95,74 %
06.04.2017 01:12 6,7 C 5,6 C 4,4 C 87 % 15 lf 1025,9 hPa 0,0 l/m 0 min 0 min 0 W/m 10,5 km/h (2 Bft) 97,87 %
06.04.2017 01:14 6,7 C 5,6 C 4,4 C 88 % 15 lf 1025,9 hPa 0,0 l/m 0 min 0 min 0 W/m 8,4 km/h (2 Bft) 97,87 %
06.04.2017 01:16 6,7 C 5,6 C 4,4 C 88 % 15 lf 1025,9 hPa 0,0 l/m 0 min 0 min 0 W/m 12,6 km/h (3 Bft) 100,00 %
06.04.2017 01:18 6,7 C 5,6 C 4,4 C 88 % 15 lf 1025,9 hPa 0,0 l/m 0 min 0 min 0 W/m 10,5 km/h (2 Bft) 95,74 %
06.04.2017 01:20 6,6 C 5,6 C 3,9 C 88 % 15 lf 1025,9 hPa 0,0 l/m 0 min 0 min 0 W/m 10,5 km/h (2 Bft) 98,28 %
06.04.2017 01:22 6,6 C 5,6 C 3,9 C 88 % 15 lf 1025,9 hPa 0,0 l/m 0 min 0 min 0 W/m 8,4 km/h (2 Bft) 97,14 %
06.04.2017 01:24 6,6 C 5,6 C 3,9 C 88 % 15 lf 1025,9 hPa 0,0 l/m 0 min 0 min 0 W/m 8,4 km/h (2 Bft) 100,00 %
06.04.2017 01:26 6,6 C 5,6 C 3,9 C 88 % 15 lf 1026,0 hPa 0,0 l/m 0 min 0 min 0 W/m 8,4 km/h (2 Bft) 100,00 %
06.04.2017 01:28 6,6 C 5,6 C 3,9 C 88 % 15 lf 1025,9 hPa 0,0 l/m 0 min 0 min 0 W/m 6,3 km/h (2 Bft) 100,00 %
06.04.2017 01:30 6,5 C 5,6 C 3,9 C 88 % 15 lf 1025,9 hPa 0,0 l/m 0 min 0 min 0 W/m 6,3 km/h (2 Bft) 97,87 %
06.04.2017 01:32 6,5 C 5,6 C 3,9 C 88 % 15 lf 1025,9 hPa 0,0 l/m 0 min 0 min 0 W/m 8,4 km/h (2 Bft) 100,00 %
06.04.2017 01:34 6,4 C 5,0 C 3,3 C 88 % 15 lf 1025,9 hPa 0,0 l/m 0 min 0 min 0 W/m 8,4 km/h (2 Bft) 93,62 %
06.04.2017 01:36 6,4 C 5,0 C 3,3 C 88 % 15 lf 1026,0 hPa 0,0 l/m 0 min 0 min 0 W/m 10,5 km/h (2 Bft) 100,00 %
06.04.2017 01:38 6,4 C 5,0 C 3,3 C 88 % 15 lf 1025,9 hPa 0,0 l/m 0 min 0 min 0 W/m 6,3 km/h (2 Bft) 97,87 %
06.04.2017 01:40 6,4 C 5,0 C 3,3 C 88 % 15 lf 1025,9 hPa 0,0 l/m 0 min 0 min 0 W/m 6,3 km/h (2 Bft) 97,87 %
06.04.2017 01:42 6,4 C 5,0 C 3,3 C 88 % 15 lf 1026,0 hPa 0,0 l/m 0 min 0 min 0 W/m 6,3 km/h (2 Bft) 95,74 %
06.04.2017 01:44 6,3 C 5,0 C 2,8 C 88 % 15 lf 1025,9 hPa 0,0 l/m 0 min 0 min 0 W/m 8,4 km/h (2 Bft) 95,65 %
06.04.2017 01:46 6,3 C 4,4 C 2,8 C 88 % 15 lf 1025,9 hPa 0,0 l/m 0 min 0 min 0 W/m 6,3 km/h (2 Bft) 97,87 %
06.04.2017 01:48 6,3 C 4,4 C 2,8 C 88 % 15 lf 1025,9 hPa 0,0 l/m 0 min 0 min 0 W/m 12,6 km/h (3 Bft) 97,87 %
06.04.2017 01:50 6,2 C 5,0 C 3,3 C 88 % 15 lf 1025,9 hPa 0,0 l/m 0 min 0 min 0 W/m 12,6 km/h (3 Bft) 97,87 %
06.04.2017 01:52 6,2 C 5,0 C 3,3 C 88 % 15 lf 1025,9 hPa 0,0 l/m 0 min 0 min 0 W/m 8,4 km/h (2 Bft) 97,87 %
06.04.2017 01:54 6,1 C 5,0 C 3,3 C 88 % 15 lf 1025,9 hPa 0,0 l/m 0 min 0 min 0 W/m 10,5 km/h (2 Bft) 97,87 %
06.04.2017 01:56 6,1 C 5,0 C 3,3 C 88 % 15 lf 1025,9 hPa 0,0 l/m 0 min 0 min 0 W/m 8,4 km/h (2 Bft) 93,48 %
06.04.2017 01:58 6,1 C 5,0 C 3,3 C 88 % 15 lf 1025,9 hPa 0,0 l/m 0 min 0 min 0 W/m 8,4 km/h (2 Bft) 91,49 %
06.04.2017 02:00 6,0 C 5,0 C 3,3 C 88 % 15 lf 1025,9 hPa 0,0 l/m 0 min 0 min 0 W/m 6,3 km/h (2 Bft) 91,49 %
06.04.2017 02:02 6,0 C 5,0 C 3,3 C 88 % 15 lf 1025,9 hPa 0,0 l/m 0 min 0 min 0 W/m 6,3 km/h (2 Bft) 97,87 %
06.04.2017 02:04 6,0 C 5,0 C 2,8 C 88 % 15 lf 1025,9 hPa 0,0 l/m 0 min 0 min 0 W/m 8,4 km/h (2 Bft) 97,87 %
06.04.2017 02:06 5,9 C 4,4 C 2,8 C 88 % 15 lf 1025,9 hPa 0,0 l/m 0 min 0 min 0 W/m 8,4 km/h (2 Bft) 97,83 %
06.04.2017 02:08 5,9 C 4,4 C 2,8 C 88 % 15 lf 1025,9 hPa 0,0 l/m 0 min 0 min 0 W/m 6,3 km/h (2 Bft) 97,87 %
06.04.2017 02:10 5,8 C 4,4 C 2,8 C 88 % 15 lf 1025,8 hPa 0,0 l/m 0 min 0 min 0 W/m 8,4 km/h (2 Bft) 95,74 %
06.04.2017 02:12 5,8 C 4,4 C 2,8 C 88 % 15 lf 1025,8 hPa 0,0 l/m 0 min 0 min 0 W/m 6,3 km/h (2 Bft) 97,87 %
06.04.2017 02:14 5,8 C 4,4 C 2,8 C 89 % 15 lf 1025,8 hPa 0,0 l/m 0 min 0 min 0 W/m 10,5 km/h (2 Bft) 97,87 %
06.04.2017 02:16 5,7 C 4,4 C 2,8 C 89 % 15 lf 1025,8 hPa 0,0 l/m 0 min 0 min 0 W/m 8,4 km/h (2 Bft) 97,87 %
06.04.2017 02:18 5,7 C 4,4 C 2,8 C 89 % 15 lf 1025,9 hPa 0,0 l/m 0 min 0 min 1 W/m 8,4 km/h (2 Bft) 97,83 %
06.04.2017 02:20 5,7 C 4,4 C 2,8 C 89 % 15 lf 1025,9 hPa 0,0 l/m 0 min 0 min 0 W/m 8,4 km/h (2 Bft) 98,31 %
06.04.2017 02:22 5,6 C 4,4 C 2,8 C 89 % 15 lf 1025,9 hPa 0,0 l/m 0 min 0 min 0 W/m 10,5 km/h (2 Bft) 100,00 %
06.04.2017 02:24 5,6 C 4,4 C 2,2 C 89 % 15 lf 1025,9 hPa 0,0 l/m 0 min 0 min 0 W/m 8,4 km/h (2 Bft) 97,87 %
06.04.2017 02:26 5,6 C 4,4 C 2,2 C 89 % 15 lf 1025,9 hPa 0,0 l/m 0 min 0 min 0 W/m 8,4 km/h (2 Bft) 97,87 %
06.04.2017 02:28 5,5 C 4,4 C 2,2 C 89 % 15 lf 1025,9 hPa 0,0 l/m 0 min 0 min 0 W/m 10,5 km/h (2 Bft) 95,74 %
06.04.2017 02:30 5,5 C 3,9 C 2,2 C 89 % 15 lf 1025,8 hPa 0,0 l/m 0 min 0 min 0 W/m 8,4 km/h (2 Bft) 93,48 %
06.04.2017 02:32 5,4 C 4,4 C 2,2 C 89 % 15 lf 1025,8 hPa 0,0 l/m 0 min 0 min 0 W/m 10,5 km/h (2 Bft) 95,74 %
06.04.2017 02:34 5,4 C 4,4 C 2,2 C 89 % 15 lf 1025,9 hPa 0,0 l/m 0 min 0 min 1 W/m 8,4 km/h (2 Bft) 93,62 %
06.04.2017 02:36 5,4 C 3,9 C 2,2 C 89 % 15 lf 1025,9 hPa 0,0 l/m 0 min 0 min 0 W/m 8,4 km/h (2 Bft) 95,74 %
06.04.2017 02:38 5,3 C 4,4 C 2,2 C 89 % 15 lf 1025,9 hPa 0,0 l/m 0 min 0 min 0 W/m 8,4 km/h (2 Bft) 97,87 %
06.04.2017 02:40 5,3 C 4,4 C 2,8 C 89 % 15 lf 1025,9 hPa 0,0 l/m 0 min 0 min 0 W/m 10,5 km/h (2 Bft) 97,87 %
06.04.2017 02:42 5,3 C 4,4 C 2,8 C 89 % 15 lf 1025,9 hPa 0,0 l/m 0 min 0 min 0 W/m 8,4 km/h (2 Bft) 93,48 %
06.04.2017 02:44 5,2 C 4,4 C 2,8 C 89 % 15 lf 1025,8 hPa 0,0 l/m 0 min 0 min 0 W/m 8,4 km/h (2 Bft) 98,00 %
06.04.2017 02:46 5,2 C 4,4 C 2,8 C 89 % 15 lf 1025,7 hPa 0,0 l/m 0 min 0 min 0 W/m 10,5 km/h (2 Bft) 98,00 %
06.04.2017 02:48 5,2 C 4,4 C 2,8 C 89 % 15 lf 1025,8 hPa 0,0 l/m 0 min 0 min 0 W/m 8,4 km/h (2 Bft) 97,87 %
06.04.2017 02:50 5,2 C 4,4 C 2,8 C 89 % 15 lf 1025,8 hPa 0,0 l/m 0 min 0 min 0 W/m 6,3 km/h (2 Bft) 95,65 %
06.04.2017 02:52 5,1 C 4,4 C 3,3 C 89 % 15 lf 1025,8 hPa 0,0 l/m 0 min 0 min 0 W/m 10,5 km/h (2 Bft) 95,74 %
06.04.2017 02:54 5,1 C 4,4 C 3,3 C 89 % 15 lf 1025,8 hPa 0,0 l/m 0 min 0 min 0 W/m 8,4 km/h (2 Bft) 91,49 %
06.04.2017 02:56 5,1 C 5,0 C 3,3 C 89 % 15 lf 1025,8 hPa 0,0 l/m 0 min 0 min 0 W/m 10,5 km/h (2 Bft) 95,74 %
06.04.2017 02:58 5,1 C 5,0 C 3,3 C 90 % 15 lf 1025,7 hPa 0,0 l/m 0 min 0 min 0 W/m 12,6 km/h (3 Bft) 95,74 %
06.04.2017 03:00 5,1 C 5,0 C 3,3 C 90 % 15 lf 1025,7 hPa 0,0 l/m 0 min 0 min 0 W/m 10,5 km/h (2 Bft) 95,74 %
06.04.2017 03:02 5,1 C 5,0 C 3,3 C 90 % 15 lf 1025,7 hPa 0,0 l/m 0 min 0 min 0 W/m 10,5 km/h (2 Bft) 91,30 %
06.04.2017 03:04 5,1 C 5,0 C 3,3 C 90 % 15 lf 1025,7 hPa 0,0 l/m 0 min 0 min 0 W/m 6,3 km/h (2 Bft) 95,74 %
06.04.2017 03:06 5,1 C 5,0 C 3,3 C 90 % 15 lf 1025,7 hPa 0,0 l/m 0 min 0 min 0 W/m 6,3 km/h (2 Bft) 93,62 %
06.04.2017 03:08 5,1 C 5,0 C 3,3 C 90 % 15 lf 1025,7 hPa 0,0 l/m 0 min 0 min 0 W/m 8,4 km/h (2 Bft) 91,49 %
06.04.2017 03:10 5,1 C 5,0 C 3,3 C 90 % 15 lf 1025,6 hPa 0,0 l/m 0 min 0 min 0 W/m 6,3 km/h (2 Bft) 97,87 %
06.04.2017 03:12 5,1 C 5,0 C 3,3 C 90 % 15 lf 1025,7 hPa 0,0 l/m 0 min 0 min 0 W/m 10,5 km/h (2 Bft) 95,74 %
06.04.2017 03:14 5,1 C 5,0 C 3,3 C 91 % 15 lf 1025,7 hPa 0,0 l/m 0 min 0 min 0 W/m 8,4 km/h (2 Bft) 95,65 %
06.04.2017 03:16 5,1 C 5,0 C 3,3 C 91 % 15 lf 1025,7 hPa 0,0 l/m 0 min 0 min 0 W/m 8,4 km/h (2 Bft) 93,62 %
06.04.2017 03:18 5,1 C 5,0 C 3,3 C 91 % 15 lf 1025,7 hPa 0,0 l/m 0 min 0 min 0 W/m 10,5 km/h (2 Bft) 97,87 %
06.04.2017 03:20 5,1 C 5,0 C 3,3 C 91 % 15 lf 1025,7 hPa 0,0 l/m 0 min 0 min 0 W/m 10,5 km/h (2 Bft) 93,62 %
06.04.2017 03:22 5,2 C 5,0 C 3,3 C 91 % 15 lf 1025,6 hPa 0,0 l/m 0 min 0 min 0 W/m 10,5 km/h (2 Bft) 97,87 %
06.04.2017 03:24 5,2 C 5,0 C 3,3 C 91 % 15 lf 1025,7 hPa 0,0 l/m 0 min 0 min 0 W/m 10,5 km/h (2 Bft) 91,30 %
06.04.2017 03:26 5,2 C 5,0 C 3,3 C 91 % 15 lf 1025,7 hPa 0,0 l/m 0 min 0 min 0 W/m 10,5 km/h (2 Bft) 95,74 %
06.04.2017 03:28 5,2 C 5,0 C 3,3 C 91 % 15 lf 1025,7 hPa 0,0 l/m 0 min 0 min 0 W/m 8,4 km/h (2 Bft) 93,62 %
06.04.2017 03:30 5,2 C 5,0 C 3,3 C 91 % 15 lf 1025,7 hPa 0,0 l/m 0 min 0 min 0 W/m 8,4 km/h (2 Bft) 95,74 %
06.04.2017 03:32 5,2 C 5,0 C 3,3 C 91 % 15 lf 1025,7 hPa 0,0 l/m 0 min 0 min 0 W/m 10,5 km/h (2 Bft) 95,74 %
06.04.2017 03:34 5,2 C 5,0 C 3,3 C 91 % 15 lf 1025,7 hPa 0,0 l/m 0 min 0 min 0 W/m 8,4 km/h (2 Bft) 97,87 %
06.04.2017 03:36 5,2 C 5,0 C 3,9 C 91 % 15 lf 1025,7 hPa 0,0 l/m 0 min 0 min 0 W/m 6,3 km/h (2 Bft) 91,30 %
06.04.2017 03:38 5,2 C 5,0 C 3,9 C 91 % 15 lf 1025,7 hPa 0,2 l/m 0 min 0 min 0 W/m 6,3 km/h (2 Bft) 93,62 %
06.04.2017 03:40 5,2 C 5,6 C 3,9 C 91 % 15 lf 1025,7 hPa 0,0 l/m 0 min 0 min 0 W/m 10,5 km/h (2 Bft) 91,49 %
06.04.2017 03:42 5,2 C 5,6 C 3,3 C 92 % 15 lf 1025,7 hPa 0,0 l/m 0 min 0 min 0 W/m 8,4 km/h (2 Bft) 91,49 %
06.04.2017 03:44 5,2 C 5,0 C 3,3 C 91 % 15 lf 1025,7 hPa 0,0 l/m 0 min 0 min 0 W/m 8,4 km/h (2 Bft) 93,62 %
06.04.2017 03:46 5,2 C 5,0 C 3,3 C 91 % 15 lf 1025,7 hPa 0,0 l/m 0 min 0 min 0 W/m 8,4 km/h (2 Bft) 97,87 %
06.04.2017 03:48 5,2 C 5,0 C 3,3 C 91 % 15 lf 1025,7 hPa 0,0 l/m 0 min 0 min 0 W/m 6,3 km/h (2 Bft) 97,83 %
06.04.2017 03:50 5,2 C 5,0 C 3,3 C 91 % 15 lf 1025,7 hPa 0,0 l/m 0 min 0 min 0 W/m 8,4 km/h (2 Bft) 97,87 %
06.04.2017 03:52 5,2 C 5,0 C 3,3 C 91 % 15 lf 1025,7 hPa 0,0 l/m 0 min 0 min 0 W/m 8,4 km/h (2 Bft) 91,49 %
06.04.2017 03:54 5,2 C 5,0 C 3,3 C 92 % 15 lf 1025,7 hPa 0,0 l/m 0 min 0 min 0 W/m 10,5 km/h (2 Bft) 100,00 %
06.04.2017 03:56 5,2 C 5,0 C 3,3 C 92 % 15 lf 1025,7 hPa 0,0 l/m 0 min 0 min 0 W/m 10,5 km/h (2 Bft) 100,00 %
06.04.2017 03:58 5,2 C 5,0 C 3,3 C 92 % 15 lf 1025,7 hPa 0,0 l/m 0 min 0 min 0 W/m 6,3 km/h (2 Bft) 100,00 %
06.04.2017 04:00 5,2 C 5,0 C 2,8 C 92 % 15 lf 1025,7 hPa 0,0 l/m 0 min 0 min 0 W/m 6,3 km/h (2 Bft) 95,65 %
06.04.2017 04:02 5,2 C 5,0 C 2,8 C 92 % 15 lf 1025,7 hPa 0,0 l/m 0 min 0 min 0 W/m 8,4 km/h (2 Bft) 96,30 %
06.04.2017 04:04 5,2 C 5,0 C 3,3 C 92 % 15 lf 1025,7 hPa 0,0 l/m 0 min 0 min 0 W/m 6,3 km/h (2 Bft) 95,74 %
06.04.2017 04:06 5,2 C 5,0 C 3,3 C 92 % 15 lf 1025,8 hPa 0,0 l/m 0 min 0 min 0 W/m 4,2 km/h (1 Bft) 100,00 %
06.04.2017 04:08 5,2 C 5,0 C 3,3 C 92 % 15 lf 1025,7 hPa 0,0 l/m 0 min 0 min 0 W/m 8,4 km/h (2 Bft) 97,87 %
06.04.2017 04:10 5,2 C 5,0 C 3,3 C 92 % 15 lf 1025,7 hPa 0,0 l/m 0 min 0 min 0 W/m 8,4 km/h (2 Bft) 97,87 %
06.04.2017 04:12 5,2 C 5,0 C 3,3 C 92 % 15 lf 1025,7 hPa 0,0 l/m 0 min 0 min 0 W/m 10,5 km/h (2 Bft) 100,00 %
06.04.2017 04:14 5,2 C 5,0 C 3,3 C 92 % 15 lf 1025,7 hPa 0,0 l/m 0 min 0 min 0 W/m 8,4 km/h (2 Bft) 97,87 %
06.04.2017 04:16 5,2 C 5,0 C 3,9 C 92 % 15 lf 1025,8 hPa 0,0 l/m 0 min 0 min 0 W/m 14,6 km/h (3 Bft) 100,00 %
06.04.2017 04:18 5,2 C 5,0 C 3,9 C 92 % 15 lf 1025,7 hPa 0,0 l/m 0 min 0 min 0 W/m 8,4 km/h (2 Bft) 100,00 %
06.04.2017 04:20 5,2 C 5,0 C 3,9 C 92 % 15 lf 1025,8 hPa 0,0 l/m 0 min 0 min 0 W/m 8,4 km/h (2 Bft) 97,87 %
06.04.2017 04:22 5,2 C 5,6 C 3,9 C 92 % 15 lf 1025,8 hPa 0,0 l/m 0 min 0 min 0 W/m 2,1 km/h (1 Bft) 100,00 %
06.04.2017 04:24 5,2 C 5,6 C 3,9 C 92 % 15 lf 1025,8 hPa 0,0 l/m 0 min 0 min 0 W/m 8,4 km/h (2 Bft) 100,00 %
06.04.2017 04:26 5,2 C 5,6 C 3,9 C 92 % 15 lf 1025,7 hPa 0,0 l/m 0 min 0 min 0 W/m 8,4 km/h (2 Bft) 100,00 %
06.04.2017 04:28 5,2 C 5,6 C 3,9 C 92 % 15 lf 1025,7 hPa 0,0 l/m 0 min 0 min 0 W/m 10,5 km/h (2 Bft) 100,00 %
06.04.2017 04:30 5,3 C 5,6 C 3,9 C 92 % 15 lf 1025,8 hPa 0,0 l/m 0 min 0 min 0 W/m 8,4 km/h (2 Bft) 97,87 %
06.04.2017 04:32 5,3 C 5,6 C 3,9 C 92 % 15 lf 1025,7 hPa 0,0 l/m 0 min 0 min 0 W/m 6,3 km/h (2 Bft) 100,00 %
06.04.2017 04:34 5,3 C 5,6 C 3,9 C 92 % 15 lf 1025,7 hPa 0,0 l/m 0 min 0 min 0 W/m 4,2 km/h (1 Bft) 97,87 %
06.04.2017 04:36 5,3 C 5,6 C 3,9 C 92 % 15 lf 1025,7 hPa 0,0 l/m 0 min 0 min 0 W/m 10,5 km/h (2 Bft) 95,65 %
06.04.2017 04:38 5,3 C 5,6 C 3,9 C 92 % 15 lf 1025,7 hPa 0,0 l/m 0 min 0 min 0 W/m 8,4 km/h (2 Bft) 95,74 %
06.04.2017 04:40 5,3 C 5,6 C 3,9 C 92 % 14 lf 1025,7 hPa 0,0 l/m 0 min 0 min 0 W/m 8,4 km/h (2 Bft) 95,74 %
06.04.2017 04:42 5,3 C 5,6 C 3,9 C 92 % 12 lf 1025,7 hPa 0,0 l/m 0 min 0 min 0 W/m 8,4 km/h (2 Bft) 97,87 %
06.04.2017 04:44 5,3 C 5,6 C 3,9 C 92 % 10 lf 1025,7 hPa 0,0 l/m 0 min 0 min 0 W/m 10,5 km/h (2 Bft) 95,74 %
06.04.2017 04:46 5,3 C 5,6 C 3,9 C 92 % 7 lf 1025,7 hPa 0,0 l/m 0 min 0 min 0 W/m 12,6 km/h (3 Bft) 95,65 %
06.04.2017 04:48 5,3 C 5,6 C 3,9 C 92 % 4 lf 1025,7 hPa 0,0 l/m 0 min 0 min 0 W/m 8,4 km/h (2 Bft) 97,87 %
06.04.2017 04:50 5,3 C 5,6 C 3,9 C 92 % 3 lf 1025,7 hPa 0,0 l/m 0 min 0 min 0 W/m 4,2 km/h (1 Bft) 95,74 %
06.04.2017 04:52 5,3 C 5,6 C 3,9 C 92 % 2 lf 1025,7 hPa 0,0 l/m 0 min 0 min 0 W/m 8,4 km/h (2 Bft) 97,87 %
06.04.2017 04:54 5,3 C 5,6 C 3,9 C 92 % 1 lf 1025,6 hPa 0,0 l/m 0 min 0 min 0 W/m 8,4 km/h (2 Bft) 97,87 %
06.04.2017 04:56 5,4 C 5,6 C 3,9 C 92 % 1 lf 1025,6 hPa 0,0 l/m 0 min 0 min 0 W/m 4,2 km/h (1 Bft) 93,62 %
06.04.2017 04:58 5,3 C 5,6 C 3,9 C 92 % 1 lf 1025,7 hPa 0,0 l/m 0 min 0 min 0 W/m 8,4 km/h (2 Bft) 93,48 %
06.04.2017 05:00 5,3 C 5,6 C 3,9 C 92 % 1 lf 1025,7 hPa 0,0 l/m 0 min 0 min 0 W/m 6,3 km/h (2 Bft) 95,74 %
06.04.2017 05:02 5,4 C 5,6 C 3,9 C 92 % 1 lf 1025,7 hPa 0,0 l/m 0 min 0 min 0 W/m 6,3 km/h (2 Bft) 91,49 %
06.04.2017 05:04 5,4 C 5,6 C 3,9 C 92 % 1 lf 1025,7 hPa 0,0 l/m 0 min 0 min 0 W/m 8,4 km/h (2 Bft) 95,74 %
06.04.2017 05:06 5,4 C 5,6 C 3,9 C 92 % 0 lf 1025,6 hPa 0,0 l/m 0 min 0 min 0 W/m 6,3 km/h (2 Bft) 95,74 %
06.04.2017 05:08 5,4 C 5,6 C 3,9 C 92 % 0 lf 1025,6 hPa 0,0 l/m 0 min 0 min 0 W/m 8,4 km/h (2 Bft) 93,62 %
06.04.2017 05:10 5,4 C 5,6 C 3,9 C 92 % 0 lf 1025,6 hPa 0,0 l/m 0 min 0 min 0 W/m 8,4 km/h (2 Bft) 89,13 %
06.04.2017 05:12 5,4 C 5,6 C 3,9 C 92 % 0 lf 1025,6 hPa 0,0 l/m 0 min 0 min 0 W/m 4,2 km/h (1 Bft) 93,62 %
06.04.2017 05:14 5,4 C 5,6 C 3,9 C 92 % 0 lf 1025,6 hPa 0,0 l/m 0 min 0 min 0 W/m 8,4 km/h (2 Bft) 91,49 %
06.04.2017 05:16 5,4 C 5,6 C 3,9 C 93 % 0 lf 1025,7 hPa 0,0 l/m 0 min 0 min 0 W/m 6,3 km/h (2 Bft) 87,23 %
06.04.2017 05:18 5,4 C 5,6 C 3,9 C 92 % 0 lf 1025,6 hPa 0,0 l/m 0 min 0 min 0 W/m 10,5 km/h (2 Bft) 89,36 %
06.04.2017 05:20 5,4 C 5,6 C 3,9 C 92 % 0 lf 1025,7 hPa 0,0 l/m 0 min 0 min 0 W/m 10,5 km/h (2 Bft) 91,49 %
06.04.2017 05:22 5,4 C 5,6 C 3,9 C 92 % 0 lf 1025,7 hPa 0,0 l/m 0 min 0 min 0 W/m 8,4 km/h (2 Bft) 89,13 %
06.04.2017 05:24 5,4 C 5,6 C 3,9 C 92 % 0 lf 1025,6 hPa 0,0 l/m 0 min 0 min 0 W/m 10,5 km/h (2 Bft) 91,49 %
06.04.2017 05:26 5,5 C 5,6 C 3,9 C 92 % 0 lf 1025,6 hPa 0,0 l/m 0 min 0 min 0 W/m 10,5 km/h (2 Bft) 91,49 %
06.04.2017 05:28 5,5 C 5,6 C 3,9 C 93 % 0 lf 1025,7 hPa 0,0 l/m 0 min 0 min 0 W/m 12,6 km/h (3 Bft) 93,62 %
06.04.2017 05:30 5,5 C 5,6 C 3,9 C 93 % 0 lf 1025,7 hPa 0,0 l/m 0 min 0 min 0 W/m 10,5 km/h (2 Bft) 91,49 %
06.04.2017 05:32 5,5 C 5,6 C 4,4 C 93 % 0 lf 1025,7 hPa 0,0 l/m 0 min 0 min 0 W/m 6,3 km/h (2 Bft) 93,62 %
06.04.2017 05:34 5,6 C 5,6 C 4,4 C 93 % 0 lf 1025,7 hPa 0,0 l/m 0 min 0 min 0 W/m 10,5 km/h (2 Bft) 93,48 %
06.04.2017 05:36 5,6 C 5,6 C 4,4 C 93 % 0 lf 1025,7 hPa 0,0 l/m 0 min 0 min 0 W/m 8,4 km/h (2 Bft) 91,49 %
06.04.2017 05:38 5,6 C 5,6 C 4,4 C 93 % 0 lf 1025,7 hPa 0,0 l/m 0 min 0 min 0 W/m 8,4 km/h (2 Bft) 93,62 %
06.04.2017 05:40 5,6 C 5,6 C 4,4 C 93 % 2 lf 1025,8 hPa 0,0 l/m 0 min 0 min 0 W/m 10,5 km/h (2 Bft) 97,87 %
06.04.2017 05:42 5,6 C 5,6 C 4,4 C 93 % 4 lf 1025,8 hPa 0,0 l/m 0 min 0 min 0 W/m 6,3 km/h (2 Bft) 95,74 %
06.04.2017 05:44 5,6 C 5,6 C 4,4 C 93 % 8 lf 1025,8 hPa 0,0 l/m 0 min 0 min 0 W/m 12,6 km/h (3 Bft) 97,87 %
06.04.2017 05:46 5,6 C 5,6 C 4,4 C 93 % 10 lf 1025,9 hPa 0,0 l/m 0 min 0 min 0 W/m 8,4 km/h (2 Bft) 97,83 %
06.04.2017 05:48 5,6 C 5,6 C 4,4 C 93 % 13 lf 1025,9 hPa 0,0 l/m 0 min 0 min 0 W/m 10,5 km/h (2 Bft) 89,36 %
06.04.2017 05:50 5,7 C 5,6 C 4,4 C 93 % 15 lf 1025,8 hPa 0,0 l/m 0 min 0 min 0 W/m 16,7 km/h (3 Bft) 97,87 %
06.04.2017 05:52 5,7 C 5,6 C 4,4 C 93 % 15 lf 1025,9 hPa 0,0 l/m 0 min 0 min 0 W/m 12,6 km/h (3 Bft) 97,87 %
06.04.2017 05:54 5,7 C 5,6 C 4,4 C 93 % 15 lf 1025,7 hPa 0,0 l/m 0 min 0 min 0 W/m 12,6 km/h (3 Bft) 100,00 %
06.04.2017 05:56 5,7 C 5,6 C 4,4 C 93 % 15 lf 1025,7 hPa 0,0 l/m 0 min 0 min 0 W/m 12,6 km/h (3 Bft) 100,00 %
06.04.2017 05:58 5,7 C 5,6 C 4,4 C 93 % 15 lf 1025,9 hPa 0,0 l/m 0 min 0 min 0 W/m 10,5 km/h (2 Bft) 95,74 %
06.04.2017 06:00 5,7 C 5,6 C 4,4 C 93 % 15 lf 1025,9 hPa 0,0 l/m 0 min 0 min 0 W/m 10,5 km/h (2 Bft) 95,74 %
06.04.2017 06:02 5,7 C 5,6 C 4,4 C 93 % 15 lf 1026,0 hPa 0,0 l/m 0 min 0 min 0 W/m 10,5 km/h (2 Bft) 95,74 %
06.04.2017 06:04 5,7 C 5,6 C 4,4 C 93 % 15 lf 1026,0 hPa 0,0 l/m 0 min 0 min 0 W/m 10,5 km/h (2 Bft) 97,87 %
06.04.2017 06:06 5,7 C 5,6 C 4,4 C 93 % 14 lf 1026,0 hPa 0,0 l/m 0 min 0 min 0 W/m 6,3 km/h (2 Bft) 95,74 %
06.04.2017 06:08 5,7 C 5,6 C 4,4 C 93 % 14 lf 1025,9 hPa 0,0 l/m 0 min 0 min 0 W/m 6,3 km/h (2 Bft) 93,62 %
06.04.2017 06:10 5,7 C 5,6 C 4,4 C 93 % 13 lf 1025,9 hPa 0,0 l/m 0 min 0 min 0 W/m 8,4 km/h (2 Bft) 93,62 %
06.04.2017 06:12 5,7 C 5,6 C 4,4 C 93 % 13 lf 1025,8 hPa 0,0 l/m 0 min 0 min 0 W/m 2,1 km/h (1 Bft) 95,74 %
06.04.2017 06:14 5,7 C 5,6 C 4,4 C 93 % 12 lf 1026,0 hPa 0,0 l/m 0 min 0 min 0 W/m 4,2 km/h (1 Bft) 93,62 %
06.04.2017 06:16 5,7 C 5,6 C 4,4 C 93 % 12 lf 1026,0 hPa 0,0 l/m 0 min 0 min 0 W/m 6,3 km/h (2 Bft) 97,87 %
06.04.2017 06:18 5,7 C 5,6 C 4,4 C 93 % 10 lf 1026,0 hPa 0,0 l/m 0 min 0 min 0 W/m 8,4 km/h (2 Bft) 93,62 %
06.04.2017 06:20 5,7 C 5,6 C 4,4 C 93 % 9 lf 1026,0 hPa 0,0 l/m 0 min 0 min 0 W/m 6,3 km/h (2 Bft) 95,65 %
06.04.2017 06:22 5,7 C 5,6 C 4,4 C 93 % 7 lf 1026,0 hPa 0,0 l/m 0 min 0 min 0 W/m 4,2 km/h (1 Bft) 95,74 %
06.04.2017 06:24 5,7 C 5,6 C 4,4 C 93 % 6 lf 1026,0 hPa 0,0 l/m 0 min 0 min 0 W/m 8,4 km/h (2 Bft) 97,87 %
06.04.2017 06:26 5,7 C 5,6 C 4,4 C 93 % 11 lf 1026,0 hPa 0,0 l/m 0 min 0 min 0 W/m 6,3 km/h (2 Bft) 97,87 %
06.04.2017 06:28 5,7 C 5,6 C 4,4 C 93 % 15 lf 1026,0 hPa 0,0 l/m 0 min 2 min 0 W/m 6,3 km/h (2 Bft) 93,62 %
06.04.2017 06:30 5,8 C 5,6 C 4,4 C 93 % 15 lf 1026,1 hPa 0,0 l/m 0 min 2 min 0 W/m 8,4 km/h (2 Bft) 95,74 %
06.04.2017 06:32 5,8 C 5,6 C 4,4 C 93 % 15 lf 1026,1 hPa 0,0 l/m 0 min 0 min 0 W/m 8,4 km/h (2 Bft) 97,83 %
06.04.2017 06:34 5,8 C 5,6 C 4,4 C 93 % 15 lf 1026,2 hPa 0,0 l/m 0 min 0 min 0 W/m 8,4 km/h (2 Bft) 97,87 %
06.04.2017 06:36 5,8 C 5,6 C 4,4 C 93 % 15 lf 1026,2 hPa 0,0 l/m 0 min 0 min 0 W/m 8,4 km/h (2 Bft) 95,74 %
06.04.2017 06:38 5,8 C 5,6 C 4,4 C 93 % 15 lf 1026,2 hPa 0,0 l/m 0 min 0 min 0 W/m 8,4 km/h (2 Bft) 97,87 %
06.04.2017 06:40 5,7 C 5,6 C 4,4 C 93 % 15 lf 1026,2 hPa 0,0 l/m 0 min 0 min 0 W/m 10,5 km/h (2 Bft) 93,62 %
06.04.2017 06:42 5,8 C 5,6 C 4,4 C 93 % 15 lf 1026,2 hPa 0,0 l/m 0 min 0 min 0 W/m 8,4 km/h (2 Bft) 97,83 %
06.04.2017 06:44 5,8 C 5,6 C 4,4 C 93 % 15 lf 1026,3 hPa 0,0 l/m 0 min 0 min 0 W/m 6,3 km/h (2 Bft) 93,62 %
06.04.2017 06:46 5,8 C 5,6 C 4,4 C 93 % 15 lf 1026,3 hPa 0,0 l/m 0 min 0 min 0 W/m 6,3 km/h (2 Bft) 97,87 %
06.04.2017 06:48 5,8 C 5,6 C 4,4 C 93 % 15 lf 1026,3 hPa 0,0 l/m 0 min 0 min 0 W/m 4,2 km/h (1 Bft) 95,74 %
06.04.2017 06:50 5,8 C 5,6 C 4,4 C 93 % 15 lf 1026,2 hPa 0,0 l/m 0 min 0 min 0 W/m 4,2 km/h (1 Bft) 95,74 %
06.04.2017 06:52 5,8 C 5,6 C 4,4 C 93 % 15 lf 1026,3 hPa 0,0 l/m 0 min 0 min 0 W/m 6,3 km/h (2 Bft) 97,87 %
06.04.2017 06:54 5,8 C 5,6 C 4,4 C 93 % 15 lf 1026,3 hPa 0,0 l/m 0 min 0 min 0 W/m 8,4 km/h (2 Bft) 97,83 %
06.04.2017 06:56 5,8 C 5,6 C 4,4 C 93 % 15 lf 1026,4 hPa 0,0 l/m 0 min 2 min 0 W/m 4,2 km/h (1 Bft) 97,87 %
06.04.2017 06:58 5,8 C 5,6 C 4,4 C 93 % 15 lf 1026,4 hPa 0,0 l/m 0 min 0 min 0 W/m 8,4 km/h (2 Bft) 95,74 %
06.04.2017 07:00 5,8 C 5,6 C 4,4 C 93 % 15 lf 1026,3 hPa 0,0 l/m 0 min 0 min 0 W/m 8,4 km/h (2 Bft) 93,62 %
06.04.2017 07:02 5,8 C 5,6 C 4,4 C 93 % 15 lf 1026,3 hPa 0,0 l/m 0 min 2 min 0 W/m 8,4 km/h (2 Bft) 97,87 %
06.04.2017 07:04 5,8 C 5,6 C 4,4 C 93 % 15 lf 1026,5 hPa 0,0 l/m 0 min 2 min 5 W/m 14,6 km/h (3 Bft) 95,74 %
06.04.2017 07:06 5,8 C 5,6 C 4,4 C 93 % 15 lf 1026,4 hPa 0,0 l/m 0 min 2 min 5 W/m 16,7 km/h (3 Bft) 97,83 %
06.04.2017 07:08 5,8 C 5,6 C 4,4 C 93 % 15 lf 1026,4 hPa 0,0 l/m 0 min 2 min 5 W/m 18,8 km/h (3 Bft) 97,87 %
06.04.2017 07:10 5,8 C 5,6 C 4,4 C 93 % 15 lf 1026,4 hPa 0,0 l/m 0 min 2 min 7 W/m 14,6 km/h (3 Bft) 95,74 %
06.04.2017 07:12 5,8 C 5,6 C 4,4 C 93 % 15 lf 1026,5 hPa 0,0 l/m 0 min 2 min 7 W/m 12,6 km/h (3 Bft) 97,87 %
06.04.2017 07:14 5,8 C 5,6 C 4,4 C 93 % 15 lf 1026,4 hPa 0,0 l/m 0 min 0 min 8 W/m 14,6 km/h (3 Bft) 93,62 %
06.04.2017 07:16 5,8 C 5,6 C 4,4 C 93 % 15 lf 1026,4 hPa 0,0 l/m 0 min 0 min 10 W/m 12,6 km/h (3 Bft) 95,74 %
06.04.2017 07:18 5,8 C 5,6 C 4,4 C 93 % 15 lf 1026,4 hPa 0,0 l/m 0 min 0 min 11 W/m 16,7 km/h (3 Bft) 100,00 %
06.04.2017 07:20 5,8 C 5,6 C 4,4 C 93 % 15 lf 1026,5 hPa 0,0 l/m 0 min 0 min 11 W/m 10,5 km/h (2 Bft) 97,87 %
06.04.2017 07:22 5,8 C 5,6 C 4,4 C 93 % 15 lf 1026,5 hPa 0,0 l/m 0 min 0 min 13 W/m 8,4 km/h (2 Bft) 97,87 %
06.04.2017 07:24 5,8 C 5,6 C 4,4 C 94 % 15 lf 1026,5 hPa 0,0 l/m 0 min 0 min 16 W/m 10,5 km/h (2 Bft) 95,74 %
06.04.2017 07:26 5,8 C 5,6 C 4,4 C 94 % 15 lf 1026,6 hPa 0,0 l/m 0 min 0 min 18 W/m 16,7 km/h (3 Bft) 100,00 %
06.04.2017 07:28 5,8 C 5,6 C 4,4 C 94 % 15 lf 1026,6 hPa 0,0 l/m 0 min 0 min 20 W/m 12,6 km/h (3 Bft) 93,62 %
06.04.2017 07:30 5,8 C 5,6 C 4,4 C 94 % 15 lf 1026,6 hPa 0,0 l/m 0 min 0 min 22 W/m 10,5 km/h (2 Bft) 95,65 %
06.04.2017 07:32 5,8 C 5,6 C 4,4 C 94 % 15 lf 1026,6 hPa 0,0 l/m 0 min 0 min 25 W/m 8,4 km/h (2 Bft) 97,87 %
06.04.2017 07:34 5,8 C 5,6 C 4,4 C 94 % 15 lf 1026,6 hPa 0,0 l/m 0 min 0 min 25 W/m 4,2 km/h (1 Bft) 95,74 %
06.04.2017 07:36 5,8 C 5,6 C 4,4 C 94 % 15 lf 1026,6 hPa 0,0 l/m 0 min 0 min 26 W/m 6,3 km/h (2 Bft) 97,87 %
06.04.2017 07:38 5,8 C 5,6 C 4,4 C 94 % 15 lf 1026,6 hPa 0,0 l/m 0 min 0 min 27 W/m 8,4 km/h (2 Bft) 95,74 %
06.04.2017 07:40 5,8 C 6,1 C 4,4 C 94 % 15 lf 1026,6 hPa 0,0 l/m 0 min 0 min 31 W/m 10,5 km/h (2 Bft) 97,87 %
06.04.2017 07:42 5,8 C 6,1 C 4,4 C 94 % 15 lf 1026,6 hPa 0,0 l/m 0 min 0 min 33 W/m 10,5 km/h (2 Bft) 97,83 %
06.04.2017 07:44 5,8 C 6,1 C 4,4 C 94 % 15 lf 1026,6 hPa 0,0 l/m 0 min 0 min 31 W/m 8,4 km/h (2 Bft) 95,74 %
06.04.2017 07:46 5,8 C 6,1 C 4,4 C 94 % 15 lf 1026,5 hPa 0,0 l/m 0 min 0 min 30 W/m 8,4 km/h (2 Bft) 95,74 %
06.04.2017 07:48 5,8 C 6,1 C 4,4 C 94 % 15 lf 1026,5 hPa 0,0 l/m 0 min 0 min 31 W/m 6,3 km/h (2 Bft) 97,87 %
06.04.2017 07:50 5,8 C 6,1 C 4,4 C 94 % 15 lf 1026,6 hPa 0,0 l/m 0 min 0 min 29 W/m 10,5 km/h (2 Bft) 95,74 %
06.04.2017 07:52 5,8 C 6,1 C 4,4 C 94 % 15 lf 1026,7 hPa 0,0 l/m 0 min 0 min 27 W/m 10,5 km/h (2 Bft) 93,48 %
06.04.2017 07:54 5,9 C 6,1 C 4,4 C 94 % 15 lf 1026,6 hPa 0,0 l/m 0 min 0 min 26 W/m 6,3 km/h (2 Bft) 97,87 %
06.04.2017 07:56 5,9 C 6,1 C 4,4 C 94 % 15 lf 1026,7 hPa 0,0 l/m 0 min 0 min 31 W/m 8,4 km/h (2 Bft) 95,74 %
06.04.2017 07:58 5,8 C 6,1 C 5,0 C 94 % 15 lf 1026,7 hPa 0,0 l/m 0 min 0 min 36 W/m 10,5 km/h (2 Bft) 97,87 %
06.04.2017 08:00 5,9 C 6,1 C 4,4 C 94 % 15 lf 1026,6 hPa 0,0 l/m 0 min 0 min 33 W/m 10,5 km/h (2 Bft) 97,87 %
06.04.2017 08:02 5,9 C 6,1 C 5,0 C 94 % 15 lf 1026,7 hPa 0,0 l/m 0 min 0 min 33 W/m 8,4 km/h (2 Bft) 95,74 %
06.04.2017 08:04 5,9 C 6,1 C 5,0 C 94 % 15 lf 1026,7 hPa 0,0 l/m 0 min 0 min 43 W/m 8,4 km/h (2 Bft) 97,83 %
06.04.2017 08:06 5,9 C 6,1 C 5,0 C 94 % 15 lf 1026,7 hPa 0,0 l/m 0 min 0 min 47 W/m 10,5 km/h (2 Bft) 95,74 %
06.04.2017 08:08 5,9 C 6,1 C 5,0 C 94 % 15 lf 1026,8 hPa 0,0 l/m 0 min 0 min 47 W/m 12,6 km/h (3 Bft) 95,74 %
06.04.2017 08:10 5,9 C 6,1 C 5,0 C 94 % 15 lf 1026,9 hPa 0,0 l/m 0 min 0 min 47 W/m 8,4 km/h (2 Bft) 97,87 %
06.04.2017 08:12 5,9 C 6,1 C 5,0 C 94 % 15 lf 1026,9 hPa 0,0 l/m 0 min 0 min 52 W/m 10,5 km/h (2 Bft) 95,74 %
06.04.2017 08:14 5,9 C 6,7 C 5,0 C 94 % 15 lf 1026,9 hPa 0,0 l/m 0 min 0 min 53 W/m 10,5 km/h (2 Bft) 97,87 %
06.04.2017 08:16 5,9 C 6,7 C 5,0 C 94 % 15 lf 1026,9 hPa 0,0 l/m 0 min 0 min 49 W/m 12,6 km/h (3 Bft) 97,83 %
06.04.2017 08:18 5,9 C 6,7 C 5,0 C 94 % 15 lf 1027,0 hPa 0,0 l/m 0 min 0 min 53 W/m 12,6 km/h (3 Bft) 97,87 %
06.04.2017 08:20 6,0 C 6,7 C 5,0 C 94 % 15 lf 1027,0 hPa 0,0 l/m 0 min 0 min 61 W/m 12,6 km/h (3 Bft) 97,87 %
06.04.2017 08:22 6,0 C 6,7 C 5,0 C 94 % 15 lf 1027,1 hPa 0,0 l/m 0 min 0 min 70 W/m 10,5 km/h (2 Bft) 100,00 %
06.04.2017 08:24 6,0 C 6,7 C 5,6 C 94 % 15 lf 1027,0 hPa 0,0 l/m 0 min 0 min 79 W/m 10,5 km/h (2 Bft) 100,00 %
06.04.2017 08:26 6,1 C 7,2 C 5,6 C 94 % 15 lf 1027,0 hPa 0,0 l/m 0 min 0 min 84 W/m 10,5 km/h (2 Bft) 100,00 %
06.04.2017 08:28 6,1 C 7,2 C 5,6 C 94 % 15 lf 1027,1 hPa 0,0 l/m 0 min 0 min 85 W/m 4,2 km/h (1 Bft) 97,83 %
06.04.2017 08:30 6,1 C 7,2 C 5,6 C 95 % 15 lf 1027,1 hPa 0,0 l/m 0 min 0 min 84 W/m 8,4 km/h (2 Bft) 97,87 %
06.04.2017 08:32 6,2 C 7,2 C 5,6 C 95 % 15 lf 1027,1 hPa 0,0 l/m 0 min 0 min 84 W/m 12,6 km/h (3 Bft) 95,74 %
06.04.2017 08:34 6,2 C 7,8 C 5,6 C 95 % 15 lf 1027,1 hPa 0,0 l/m 0 min 0 min 84 W/m 8,4 km/h (2 Bft) 97,87 %
06.04.2017 08:36 6,2 C 7,8 C 6,1 C 94 % 15 lf 1027,1 hPa 0,0 l/m 0 min 0 min 80 W/m 4,2 km/h (1 Bft) 100,00 %
06.04.2017 08:38 6,2 C 7,8 C 6,1 C 94 % 15 lf 1027,1 hPa 0,0 l/m 0 min 0 min 84 W/m 10,5 km/h (2 Bft) 100,00 %
06.04.2017 08:40 6,3 C 7,8 C 6,1 C 95 % 15 lf 1027,1 hPa 0,0 l/m 0 min 0 min 88 W/m 8,4 km/h (2 Bft) 100,00 %
06.04.2017 08:42 6,3 C 7,8 C 6,1 C 95 % 15 lf 1027,1 hPa 0,0 l/m 0 min 0 min 93 W/m 10,5 km/h (2 Bft) 95,74 %
06.04.2017 08:44 6,4 C 7,8 C 6,1 C 95 % 15 lf 1027,1 hPa 0,0 l/m 0 min 0 min 106 W/m 6,3 km/h (2 Bft) 97,87 %
06.04.2017 08:46 6,4 C 7,8 C 6,1 C 95 % 14 lf 1027,1 hPa 0,0 l/m 0 min 0 min 100 W/m 4,2 km/h (1 Bft) 97,87 %
06.04.2017 08:48 6,4 C 8,3 C 6,1 C 95 % 11 lf 1027,2 hPa 0,0 l/m 0 min 0 min 91 W/m 6,3 km/h (2 Bft) 95,74 %
06.04.2017 08:50 6,4 C 8,3 C 6,1 C 95 % 5 lf 1027,2 hPa 0,0 l/m 0 min 0 min 92 W/m 6,3 km/h (2 Bft) 95,74 %
06.04.2017 08:52 6,5 C 8,3 C 6,7 C 95 % 3 lf 1027,1 hPa 0,0 l/m 0 min 0 min 98 W/m 6,3 km/h (2 Bft) 95,65 %
06.04.2017 08:54 6,5 C 8,3 C 6,1 C 95 % 0 lf 1027,2 hPa 0,0 l/m 0 min 0 min 100 W/m 14,6 km/h (3 Bft) 97,87 %
06.04.2017 08:56 6,5 C 8,3 C 6,1 C 95 % 0 lf 1027,2 hPa 0,0 l/m 0 min 0 min 99 W/m 12,6 km/h (3 Bft) 97,87 %
06.04.2017 08:58 6,5 C 8,3 C 6,1 C 95 % 0 lf 1027,3 hPa 0,0 l/m 0 min 0 min 96 W/m 14,6 km/h (3 Bft) 95,74 %
06.04.2017 09:00 6,5 C 8,3 C 6,7 C 95 % 0 lf 1027,3 hPa 0,0 l/m 0 min 0 min 101 W/m 14,6 km/h (3 Bft) 95,74 %
06.04.2017 09:02 6,6 C 8,3 C 6,7 C 95 % 0 lf 1027,3 hPa 0,0 l/m 0 min 0 min 104 W/m 12,6 km/h (3 Bft) 93,48 %
06.04.2017 09:04 6,6 C 8,3 C 6,7 C 95 % 0 lf 1027,2 hPa 0,0 l/m 0 min 0 min 107 W/m 14,6 km/h (3 Bft) 95,74 %
06.04.2017 09:06 6,6 C 8,3 C 6,7 C 95 % 0 lf 1027,3 hPa 0,0 l/m 0 min 0 min 111 W/m 10,5 km/h (2 Bft) 91,49 %
06.04.2017 09:08 6,6 C 8,3 C 6,7 C 95 % 0 lf 1027,3 hPa 0,0 l/m 0 min 0 min 118 W/m 10,5 km/h (2 Bft) 93,62 %
06.04.2017 09:10 6,7 C 8,3 C 7,2 C 95 % 0 lf 1027,3 hPa 0,0 l/m 0 min 0 min 125 W/m 10,5 km/h (2 Bft) 93,62 %
06.04.2017 09:12 6,7 C 8,9 C 7,2 C 95 % 0 lf 1027,3 hPa 0,0 l/m 0 min 0 min 124 W/m 10,5 km/h (2 Bft) 93,62 %
06.04.2017 09:14 6,7 C 8,9 C 7,2 C 95 % 0 lf 1027,3 hPa 0,0 l/m 0 min 0 min 132 W/m 8,4 km/h (2 Bft) 97,83 %
06.04.2017 09:16 6,8 C 9,4 C 7,2 C 95 % 0 lf 1027,3 hPa 0,0 l/m 0 min 0 min 149 W/m 10,5 km/h (2 Bft) 91,49 %
06.04.2017 09:18 6,8 C 9,4 C 7,2 C 95 % 0 lf 1027,4 hPa 0,0 l/m 0 min 0 min 163 W/m 12,6 km/h (3 Bft) 95,74 %
06.04.2017 09:20 6,8 C 9,4 C 7,2 C 95 % 0 lf 1027,4 hPa 0,0 l/m 0 min 0 min 157 W/m 10,5 km/h (2 Bft) 95,74 %
06.04.2017 09:22 6,9 C 9,4 C 7,2 C 94 % 0 lf 1027,4 hPa 0,0 l/m 0 min 0 min 148 W/m 10,5 km/h (2 Bft) 95,74 %
06.04.2017 09:24 6,9 C 9,4 C 7,8 C 94 % 0 lf 1027,4 hPa 0,0 l/m 0 min 0 min 142 W/m 8,4 km/h (2 Bft) 93,62 %
06.04.2017 09:26 6,9 C 9,4 C 7,8 C 94 % 0 lf 1027,4 hPa 0,0 l/m 0 min 0 min 140 W/m 10,5 km/h (2 Bft) 95,65 %
06.04.2017 09:28 7,0 C 9,4 C 7,8 C 94 % 0 lf 1027,3 hPa 0,0 l/m 0 min 0 min 149 W/m 4,2 km/h (1 Bft) 95,74 %
06.04.2017 09:30 7,1 C 10,0 C 7,8 C 94 % 0 lf 1027,3 hPa 0,0 l/m 0 min 0 min 155 W/m 8,4 km/h (2 Bft) 93,62 %
06.04.2017 09:32 7,2 C 9,4 C 7,8 C 94 % 0 lf 1027,4 hPa 0,0 l/m 0 min 0 min 152 W/m 8,4 km/h (2 Bft) 93,62 %
06.04.2017 09:34 7,2 C 10,0 C 7,8 C 94 % 0 lf 1027,4 hPa 0,0 l/m 0 min 0 min 149 W/m 8,4 km/h (2 Bft) 89,36 %
06.04.2017 09:36 7,3 C 10,0 C 7,8 C 94 % 0 lf 1027,4 hPa 0,0 l/m 0 min 0 min 133 W/m 6,3 km/h (2 Bft) 93,62 %
06.04.2017 09:38 7,3 C 9,4 C 7,8 C 94 % 0 lf 1027,4 hPa 0,0 l/m 0 min 0 min 129 W/m 10,5 km/h (2 Bft) 93,48 %
06.04.2017 09:40 7,3 C 9,4 C 7,8 C 94 % 0 lf 1027,5 hPa 0,0 l/m 0 min 0 min 139 W/m 12,6 km/h (3 Bft) 95,74 %
06.04.2017 09:42 7,3 C 9,4 C 7,8 C 94 % 0 lf 1027,5 hPa 0,0 l/m 0 min 0 min 150 W/m 12,6 km/h (3 Bft) 93,62 %
06.04.2017 09:44 7,3 C 9,4 C 7,8 C 93 % 0 lf 1027,5 hPa 0,0 l/m 0 min 0 min 166 W/m 10,5 km/h (2 Bft) 95,74 %
06.04.2017 09:46 7,3 C 10,0 C 7,8 C 93 % 0 lf 1027,5 hPa 0,0 l/m 0 min 0 min 174 W/m 8,4 km/h (2 Bft) 93,62 %
06.04.2017 09:48 7,3 C 10,0 C 7,8 C 93 % 0 lf 1027,5 hPa 0,0 l/m 0 min 0 min 185 W/m 16,7 km/h (3 Bft) 95,74 %
06.04.2017 09:50 7,4 C 10,0 C 8,3 C 93 % 0 lf 1027,5 hPa 0,0 l/m 0 min 0 min 189 W/m 10,5 km/h (2 Bft) 91,30 %
06.04.2017 09:52 7,4 C 10,0 C 8,3 C 93 % 0 lf 1027,5 hPa 0,0 l/m 0 min 0 min 183 W/m 14,6 km/h (3 Bft) 95,74 %
06.04.2017 09:54 7,4 C 10,0 C 8,3 C 93 % 0 lf 1027,5 hPa 0,0 l/m 0 min 0 min 174 W/m 14,6 km/h (3 Bft) 93,62 %
06.04.2017 09:56 7,5 C 10,0 C 8,3 C 92 % 0 lf 1027,5 hPa 0,0 l/m 0 min 0 min 152 W/m 10,5 km/h (2 Bft) 91,49 %
06.04.2017 09:58 7,5 C 10,0 C 8,3 C 92 % 0 lf 1027,5 hPa 0,0 l/m 0 min 0 min 153 W/m 12,6 km/h (3 Bft) 95,74 %
06.04.2017 10:00 7,6 C 10,0 C 7,8 C 92 % 0 lf 1027,5 hPa 0,0 l/m 0 min 0 min 147 W/m 16,7 km/h (3 Bft) 95,74 %
06.04.2017 10:02 7,6 C 10,0 C 8,3 C 92 % 0 lf 1027,5 hPa 0,0 l/m 0 min 0 min 179 W/m 12,6 km/h (3 Bft) 95,65 %
06.04.2017 10:04 7,6 C 10,0 C 8,3 C 92 % 0 lf 1027,5 hPa 0,0 l/m 0 min 0 min 170 W/m 16,7 km/h (3 Bft) 95,74 %
06.04.2017 10:06 7,7 C 10,0 C 8,3 C 91 % 0 lf 1027,5 hPa 0,0 l/m 0 min 0 min 141 W/m 14,6 km/h (3 Bft) 97,87 %
06.04.2017 10:08 7,7 C 9,4 C 8,3 C 91 % 0 lf 1027,4 hPa 0,0 l/m 0 min 0 min 132 W/m 12,6 km/h (3 Bft) 97,87 %
06.04.2017 10:10 7,7 C 10,0 C 8,3 C 91 % 0 lf 1027,5 hPa 0,0 l/m 0 min 0 min 164 W/m 16,7 km/h (3 Bft) 95,92 %
06.04.2017 10:12 7,7 C 10,0 C 8,3 C 90 % 0 lf 1027,5 hPa 0,0 l/m 0 min 0 min 177 W/m 14,6 km/h (3 Bft) 97,87 %
06.04.2017 10:14 7,7 C 10,0 C 8,3 C 90 % 0 lf 1027,4 hPa 0,0 l/m 0 min 0 min 180 W/m 10,5 km/h (2 Bft) 86,96 %
06.04.2017 10:16 7,7 C 10,0 C 8,3 C 89 % 0 lf 1027,4 hPa 0,0 l/m 0 min 0 min 183 W/m 12,6 km/h (3 Bft) 97,87 %
06.04.2017 10:18 7,7 C 10,0 C 8,3 C 89 % 0 lf 1027,5 hPa 0,0 l/m 0 min 0 min 152 W/m 14,6 km/h (3 Bft) 96,00 %
06.04.2017 10:20 7,7 C 10,0 C 7,8 C 89 % 0 lf 1027,4 hPa 0,0 l/m 0 min 0 min 129 W/m 16,7 km/h (3 Bft) 97,87 %
06.04.2017 10:22 7,7 C 9,4 C 7,8 C 88 % 0 lf 1027,5 hPa 0,0 l/m 0 min 0 min 98 W/m 10,5 km/h (2 Bft) 95,74 %
06.04.2017 10:24 7,7 C 9,4 C 7,8 C 88 % 0 lf 1027,5 hPa 0,0 l/m 0 min 0 min 82 W/m 14,6 km/h (3 Bft) 95,74 %
06.04.2017 10:26 7,7 C 9,4 C 7,8 C 88 % 0 lf 1027,5 hPa 0,0 l/m 0 min 0 min 84 W/m 10,5 km/h (2 Bft) 93,48 %
06.04.2017 10:28 7,7 C 8,9 C 7,8 C 87 % 0 lf 1027,5 hPa 0,0 l/m 0 min 0 min 82 W/m 10,5 km/h (2 Bft) 95,74 %
06.04.2017 10:30 7,7 C 8,9 C 7,2 C 87 % 0 lf 1027,6 hPa 0,0 l/m 0 min 0 min 79 W/m 14,6 km/h (3 Bft) 97,87 %
06.04.2017 10:32 7,7 C 8,9 C 7,2 C 87 % 0 lf 1027,6 hPa 0,0 l/m 0 min 0 min 72 W/m 12,6 km/h (3 Bft) 93,62 %
06.04.2017 10:34 7,7 C 8,9 C 7,2 C 86 % 3 lf 1027,6 hPa 0,0 l/m 0 min 0 min 73 W/m 10,5 km/h (2 Bft) 95,74 %
06.04.2017 10:36 7,7 C 8,3 C 7,2 C 86 % 0 lf 1027,6 hPa 0,0 l/m 0 min 0 min 80 W/m 10,5 km/h (2 Bft) 89,13 %
06.04.2017 10:38 7,7 C 8,3 C 7,2 C 86 % 0 lf 1027,6 hPa 0,0 l/m 0 min 0 min 87 W/m 8,4 km/h (2 Bft) 93,62 %
06.04.2017 10:40 7,7 C 8,3 C 7,2 C 86 % 0 lf 1027,6 hPa 0,0 l/m 0 min 0 min 86 W/m 8,4 km/h (2 Bft) 93,62 %
06.04.2017 10:42 7,7 C 8,9 C 7,2 C 86 % 0 lf 1027,6 hPa 0,0 l/m 0 min 0 min 89 W/m 8,4 km/h (2 Bft) 91,49 %
06.04.2017 10:44 7,7 C 8,9 C 7,2 C 86 % 0 lf 1027,6 hPa 0,0 l/m 0 min 0 min 99 W/m 8,4 km/h (2 Bft) 95,74 %
06.04.2017 10:46 7,7 C 8,9 C 7,8 C 86 % 0 lf 1027,7 hPa 0,0 l/m 0 min 0 min 111 W/m 12,6 km/h (3 Bft) 95,74 %
06.04.2017 10:48 7,7 C 8,9 C 7,8 C 86 % 0 lf 1027,7 hPa 0,0 l/m 0 min 0 min 117 W/m 12,6 km/h (3 Bft) 93,62 %
06.04.2017 10:50 7,7 C 8,9 C 7,8 C 85 % 0 lf 1027,6 hPa 0,0 l/m 0 min 0 min 123 W/m 12,6 km/h (3 Bft) 93,48 %
06.04.2017 10:52 7,7 C 9,4 C 7,8 C 85 % 0 lf 1027,7 hPa 0,0 l/m 0 min 0 min 126 W/m 6,3 km/h (2 Bft) 95,74 %
06.04.2017 10:54 7,7 C 9,4 C 7,8 C 85 % 0 lf 1027,7 hPa 0,0 l/m 0 min 0 min 122 W/m 18,8 km/h (3 Bft) 93,62 %
06.04.2017 10:56 7,7 C 9,4 C 7,8 C 85 % 0 lf 1027,7 hPa 0,0 l/m 0 min 0 min 116 W/m 14,6 km/h (3 Bft) 97,87 %
06.04.2017 10:58 7,7 C 8,9 C 7,8 C 85 % 0 lf 1027,6 hPa 0,0 l/m 0 min 0 min 106 W/m 8,4 km/h (2 Bft) 93,62 %
06.04.2017 11:00 7,7 C 8,9 C 7,8 C 85 % 0 lf 1027,7 hPa 0,0 l/m 0 min 0 min 96 W/m 14,6 km/h (3 Bft) 95,65 %
06.04.2017 11:02 7,7 C 8,9 C 7,8 C 85 % 0 lf 1027,7 hPa 0,0 l/m 0 min 0 min 90 W/m 14,6 km/h (3 Bft) 93,62 %
06.04.2017 11:04 7,7 C 8,9 C 7,8 C 85 % 0 lf 1027,7 hPa 0,0 l/m 0 min 0 min 86 W/m 10,5 km/h (2 Bft) 97,87 %
06.04.2017 11:06 7,7 C 8,9 C 7,8 C 85 % 0 lf 1027,7 hPa 0,0 l/m 0 min 0 min 86 W/m 8,4 km/h (2 Bft) 95,74 %
06.04.2017 11:08 7,7 C 8,9 C 7,8 C 85 % 0 lf 1027,8 hPa 0,0 l/m 0 min 0 min 90 W/m 12,6 km/h (3 Bft) 100,00 %
06.04.2017 11:10 7,7 C 8,9 C 7,8 C 85 % 0 lf 1027,8 hPa 0,0 l/m 0 min 0 min 100 W/m 10,5 km/h (2 Bft) 93,62 %
06.04.2017 11:12 7,8 C 8,9 C 7,8 C 85 % 0 lf 1027,9 hPa 0,0 l/m 0 min 0 min 117 W/m 8,4 km/h (2 Bft) 100,00 %
06.04.2017 11:14 7,8 C 9,4 C 8,3 C 85 % 0 lf 1027,8 hPa 0,0 l/m 0 min 0 min 139 W/m 8,4 km/h (2 Bft) 100,00 %
06.04.2017 11:16 7,8 C 9,4 C 8,3 C 85 % 0 lf 1027,9 hPa 0,0 l/m 0 min 0 min 163 W/m 8,4 km/h (2 Bft) 100,00 %
06.04.2017 11:18 7,8 C 10,0 C 8,9 C 85 % 0 lf 1027,9 hPa 0,0 l/m 0 min 0 min 177 W/m 12,6 km/h (3 Bft) 100,00 %
06.04.2017 11:20 7,8 C 10,0 C 8,9 C 85 % 0 lf 1027,8 hPa 0,0 l/m 0 min 0 min 188 W/m 12,6 km/h (3 Bft) 97,87 %
06.04.2017 11:22 7,9 C 10,0 C 8,9 C 85 % 0 lf 1027,8 hPa 0,0 l/m 0 min 0 min 214 W/m 12,6 km/h (3 Bft) 97,87 %
06.04.2017 11:24 7,9 C 10,6 C 9,4 C 85 % 0 lf 1027,8 hPa 0,0 l/m 0 min 0 min 227 W/m 10,5 km/h (2 Bft) 100,00 %
06.04.2017 11:26 7,9 C 10,6 C 9,4 C 85 % 0 lf 1027,9 hPa 0,0 l/m 0 min 0 min 238 W/m 8,4 km/h (2 Bft) 100,00 %
06.04.2017 11:28 7,9 C 11,1 C 10,0 C 85 % 0 lf 1027,8 hPa 0,0 l/m 0 min 0 min 249 W/m 12,6 km/h (3 Bft) 100,00 %
06.04.2017 11:30 8,0 C 11,1 C 10,0 C 85 % 0 lf 1027,9 hPa 0,0 l/m 0 min 0 min 243 W/m 14,6 km/h (3 Bft) 100,00 %
06.04.2017 11:32 8,1 C 11,1 C 10,0 C 84 % 0 lf 1027,9 hPa 0,0 l/m 0 min 0 min 230 W/m 14,6 km/h (3 Bft) 97,87 %
06.04.2017 11:34 8,1 C 11,1 C 10,0 C 84 % 0 lf 1027,9 hPa 0,0 l/m 0 min 0 min 235 W/m 14,6 km/h (3 Bft) 97,87 %
06.04.2017 11:36 8,1 C 11,1 C 10,0 C 84 % 0 lf 1027,9 hPa 0,0 l/m 0 min 0 min 224 W/m 12,6 km/h (3 Bft) 100,00 %
06.04.2017 11:38 8,2 C 10,6 C 10,0 C 84 % 0 lf 1027,9 hPa 0,0 l/m 0 min 0 min 189 W/m 8,4 km/h (2 Bft) 100,00 %
06.04.2017 11:40 8,2 C 10,6 C 9,4 C 84 % 0 lf 1027,9 hPa 0,0 l/m 0 min 0 min 176 W/m 8,4 km/h (2 Bft) 100,00 %
06.04.2017 11:42 8,2 C 10,6 C 9,4 C 83 % 0 lf 1027,9 hPa 0,0 l/m 0 min 0 min 190 W/m 12,6 km/h (3 Bft) 97,87 %
06.04.2017 11:44 8,2 C 10,6 C 8,9 C 83 % 0 lf 1028,0 hPa 0,0 l/m 0 min 0 min 206 W/m 14,6 km/h (3 Bft) 100,00 %
06.04.2017 11:46 8,2 C 10,0 C 8,9 C 82 % 0 lf 1027,9 hPa 0,0 l/m 0 min 0 min 209 W/m 18,8 km/h (3 Bft) 97,83 %
06.04.2017 11:48 8,2 C 10,0 C 8,9 C 82 % 0 lf 1028,0 hPa 0,0 l/m 0 min 0 min 207 W/m 16,7 km/h (3 Bft) 100,00 %
06.04.2017 11:50 8,2 C 10,0 C 8,9 C 82 % 0 lf 1028,0 hPa 0,0 l/m 0 min 0 min 206 W/m 12,6 km/h (3 Bft) 95,74 %
06.04.2017 11:52 8,2 C 10,0 C 8,9 C 82 % 0 lf 1028,0 hPa 0,0 l/m 0 min 0 min 200 W/m 16,7 km/h (3 Bft) 100,00 %
06.04.2017 11:54 8,2 C 10,0 C 8,9 C 82 % 0 lf 1028,0 hPa 0,0 l/m 0 min 0 min 198 W/m 12,6 km/h (3 Bft) 100,00 %
06.04.2017 11:56 8,2 C 10,0 C 8,9 C 82 % 0 lf 1028,0 hPa 0,0 l/m 0 min 0 min 186 W/m 6,3 km/h (2 Bft) 100,00 %
06.04.2017 11:58 8,3 C 10,6 C 8,9 C 82 % 0 lf 1028,0 hPa 0,0 l/m 0 min 0 min 172 W/m 12,6 km/h (3 Bft) 97,87 %
06.04.2017 12:00 8,3 C 10,6 C 8,9 C 82 % 0 lf 1028,0 hPa 0,0 l/m 0 min 0 min 159 W/m 16,7 km/h (3 Bft) 97,83 %
06.04.2017 12:02 8,3 C 10,6 C 8,9 C 82 % 0 lf 1028,0 hPa 0,0 l/m 0 min 0 min 146 W/m 12,6 km/h (3 Bft) 95,74 %
06.04.2017 12:04 8,3 C 10,0 C 8,9 C 82 % 0 lf 1028,0 hPa 0,0 l/m 0 min 0 min 111 W/m 8,4 km/h (2 Bft) 97,87 %
06.04.2017 12:06 8,3 C 10,0 C 8,3 C 82 % 0 lf 1028,0 hPa 0,0 l/m 0 min 0 min 94 W/m 10,5 km/h (2 Bft) 91,49 %
06.04.2017 12:08 8,3 C 10,0 C 8,3 C 82 % 0 lf 1028,1 hPa 0,0 l/m 0 min 0 min 98 W/m 10,5 km/h (2 Bft) 97,87 %
06.04.2017 12:10 8,3 C 9,4 C 8,3 C 82 % 0 lf 1028,0 hPa 0,0 l/m 0 min 0 min 105 W/m 8,4 km/h (2 Bft) 95,65 %
06.04.2017 12:12 8,3 C 9,4 C 8,3 C 82 % 0 lf 1028,0 hPa 0,0 l/m 0 min 0 min 94 W/m 10,5 km/h (2 Bft) 97,87 %
06.04.2017 12:14 8,3 C 9,4 C 8,3 C 82 % 0 lf 1028,1 hPa 0,0 l/m 0 min 0 min 91 W/m 10,5 km/h (2 Bft) 97,87 %
06.04.2017 12:16 8,3 C 9,4 C 8,3 C 82 % 0 lf 1028,1 hPa 0,0 l/m 0 min 0 min 106 W/m 10,5 km/h (2 Bft) 95,74 %
06.04.2017 12:18 8,3 C 9,4 C 8,9 C 82 % 0 lf 1028,1 hPa 0,0 l/m 0 min 0 min 135 W/m 10,5 km/h (2 Bft) 97,87 %
06.04.2017 12:20 8,3 C 10,0 C 8,9 C 82 % 0 lf 1028,1 hPa 0,0 l/m 0 min 0 min 149 W/m 8,4 km/h (2 Bft) 95,74 %
06.04.2017 12:22 8,3 C 10,0 C 8,9 C 82 % 0 lf 1028,1 hPa 0,0 l/m 0 min 0 min 156 W/m 8,4 km/h (2 Bft) 93,48 %
06.04.2017 12:24 8,3 C 10,0 C 9,4 C 81 % 0 lf 1028,2 hPa 0,0 l/m 0 min 0 min 183 W/m 8,4 km/h (2 Bft) 93,62 %
06.04.2017 12:26 8,3 C 10,6 C 9,4 C 81 % 0 lf 1028,2 hPa 0,0 l/m 0 min 0 min 225 W/m 6,3 km/h (2 Bft) 91,49 %
06.04.2017 12:28 8,3 C 10,6 C 10,0 C 81 % 0 lf 1028,2 hPa 0,0 l/m 0 min 0 min 230 W/m 8,4 km/h (2 Bft) 97,87 %
06.04.2017 12:30 8,4 C 11,1 C 10,0 C 81 % 0 lf 1028,1 hPa 0,0 l/m 0 min 0 min 253 W/m 8,4 km/h (2 Bft) 97,87 %
06.04.2017 12:32 8,4 C 11,1 C 10,0 C 81 % 0 lf 1028,1 hPa 0,0 l/m 0 min 0 min 268 W/m 12,6 km/h (3 Bft) 93,62 %
06.04.2017 12:34 8,4 C 11,7 C 10,6 C 81 % 0 lf 1028,1 hPa 0,0 l/m 0 min 0 min 276 W/m 14,6 km/h (3 Bft) 95,65 %
06.04.2017 12:36 8,5 C 11,7 C 10,6 C 81 % 0 lf 1028,1 hPa 0,0 l/m 0 min 0 min 261 W/m 14,6 km/h (3 Bft) 95,74 %
06.04.2017 12:38 8,5 C 11,7 C 10,0 C 80 % 0 lf 1028,1 hPa 0,0 l/m 0 min 0 min 241 W/m 8,4 km/h (2 Bft) 93,62 %
06.04.2017 12:40 8,5 C 11,7 C 10,0 C 80 % 0 lf 1028,1 hPa 0,0 l/m 0 min 0 min 208 W/m 10,5 km/h (2 Bft) 91,49 %
06.04.2017 12:42 8,5 C 11,7 C 10,0 C 80 % 0 lf 1028,1 hPa 0,0 l/m 0 min 0 min 186 W/m 6,3 km/h (2 Bft) 95,74 %
06.04.2017 12:44 8,6 C 11,7 C 10,0 C 80 % 0 lf 1028,1 hPa 0,0 l/m 0 min 0 min 190 W/m 10,5 km/h (2 Bft) 93,62 %
06.04.2017 12:46 8,6 C 11,7 C 10,0 C 80 % 0 lf 1028,1 hPa 0,0 l/m 0 min 0 min 223 W/m 12,6 km/h (3 Bft) 91,30 %
06.04.2017 12:48 8,6 C 11,7 C 10,0 C 80 % 0 lf 1028,1 hPa 0,0 l/m 0 min 0 min 224 W/m 12,6 km/h (3 Bft) 91,49 %
06.04.2017 12:50 8,7 C 11,1 C 10,0 C 80 % 0 lf 1028,2 hPa 0,0 l/m 0 min 0 min 215 W/m 12,6 km/h (3 Bft) 93,62 %
06.04.2017 12:52 8,7 C 11,1 C 10,0 C 80 % 0 lf 1028,2 hPa 0,0 l/m 0 min 0 min 211 W/m 12,6 km/h (3 Bft) 95,74 %
06.04.2017 12:54 8,7 C 11,7 C 10,6 C 79 % 0 lf 1028,1 hPa 0,0 l/m 0 min 0 min 242 W/m 8,4 km/h (2 Bft) 91,49 %
06.04.2017 12:56 8,7 C 11,7 C 10,6 C 80 % 0 lf 1028,2 hPa 0,0 l/m 0 min 0 min 292 W/m 8,4 km/h (2 Bft) 93,48 %
06.04.2017 12:58 8,8 C 12,2 C 10,6 C 80 % 0 lf 1028,2 hPa 0,0 l/m 0 min 0 min 275 W/m 10,5 km/h (2 Bft) 95,74 %
06.04.2017 13:00 8,8 C 12,2 C 10,6 C 80 % 0 lf 1028,2 hPa 0,0 l/m 0 min 0 min 262 W/m 12,6 km/h (3 Bft) 93,62 %
06.04.2017 13:02 8,9 C 12,2 C 10,6 C 79 % 0 lf 1028,2 hPa 0,0 l/m 0 min 0 min 248 W/m 6,3 km/h (2 Bft) 89,36 %
06.04.2017 13:04 8,9 C 12,2 C 11,1 C 79 % 0 lf 1028,2 hPa 0,0 l/m 0 min 0 min 266 W/m 10,5 km/h (2 Bft) 91,49 %
06.04.2017 13:06 8,9 C 12,8 C 11,1 C 79 % 0 lf 1028,1 hPa 0,0 l/m 0 min 0 min 275 W/m 8,4 km/h (2 Bft) 93,62 %
06.04.2017 13:08 9,0 C 12,8 C 11,1 C 79 % 0 lf 1028,2 hPa 0,0 l/m 0 min 0 min 261 W/m 8,4 km/h (2 Bft) 95,74 %
06.04.2017 13:10 9,0 C 12,8 C 11,1 C 79 % 0 lf 1028,1 hPa 0,0 l/m 0 min 0 min 231 W/m 6,3 km/h (2 Bft) 95,65 %
06.04.2017 13:12 9,1 C 12,8 C 10,6 C 79 % 0 lf 1028,1 hPa 0,0 l/m 0 min 0 min 201 W/m 10,5 km/h (2 Bft) 95,74 %
06.04.2017 13:14 9,1 C 12,2 C 10,6 C 79 % 0 lf 1028,1 hPa 0,0 l/m 0 min 0 min 186 W/m 10,5 km/h (2 Bft) 91,49 %
06.04.2017 13:16 9,1 C 12,2 C 10,0 C 78 % 0 lf 1028,1 hPa 0,0 l/m 0 min 0 min 172 W/m 10,5 km/h (2 Bft) 93,62 %
06.04.2017 13:18 9,1 C 11,7 C 10,0 C 78 % 0 lf 1028,1 hPa 0,0 l/m 0 min 0 min 171 W/m 12,6 km/h (3 Bft) 93,62 %
06.04.2017 13:20 9,1 C 11,7 C 10,6 C 78 % 0 lf 1028,1 hPa 0,0 l/m 0 min 0 min 190 W/m 10,5 km/h (2 Bft) 95,74 %
06.04.2017 13:22 9,2 C 11,7 C 10,6 C 79 % 0 lf 1028,1 hPa 0,0 l/m 0 min 0 min 227 W/m 10,5 km/h (2 Bft) 95,65 %
06.04.2017 13:24 9,2 C 11,7 C 10,6 C 78 % 0 lf 1028,1 hPa 0,0 l/m 0 min 0 min 258 W/m 12,6 km/h (3 Bft) 89,36 %
06.04.2017 13:26 9,2 C 11,7 C 10,6 C 78 % 0 lf 1028,2 hPa 0,0 l/m 0 min 0 min 242 W/m 12,6 km/h (3 Bft) 95,74 %
06.04.2017 13:28 9,2 C 11,7 C 10,6 C 78 % 0 lf 1028,1 hPa 0,0 l/m 0 min 0 min 225 W/m 14,6 km/h (3 Bft) 95,74 %
06.04.2017 13:30 9,2 C 11,7 C 11,1 C 78 % 0 lf 1028,1 hPa 0,0 l/m 0 min 0 min 223 W/m 10,5 km/h (2 Bft) 93,62 %
06.04.2017 13:32 9,3 C 12,2 C 11,1 C 79 % 0 lf 1028,1 hPa 0,0 l/m 0 min 0 min 216 W/m 10,5 km/h (2 Bft) 93,48 %
06.04.2017 13:34 9,3 C 11,7 C 10,6 C 78 % 0 lf 1028,0 hPa 0,0 l/m 0 min 0 min 207 W/m 12,6 km/h (3 Bft) 95,74 %
06.04.2017 13:36 9,3 C 11,7 C 10,6 C 77 % 0 lf 1028,0 hPa 0,0 l/m 0 min 0 min 195 W/m 8,4 km/h (2 Bft) 93,62 %
06.04.2017 13:38 9,3 C 11,7 C 10,0 C 77 % 0 lf 1028,0 hPa 0,0 l/m 0 min 0 min 200 W/m 12,6 km/h (3 Bft) 93,62 %
06.04.2017 13:40 9,3 C 11,7 C 10,6 C 77 % 0 lf 1028,0 hPa 0,0 l/m 0 min 0 min 202 W/m 12,6 km/h (3 Bft) 91,49 %
06.04.2017 13:42 9,3 C 11,7 C 10,6 C 77 % 0 lf 1028,0 hPa 0,0 l/m 0 min 0 min 185 W/m 12,6 km/h (3 Bft) 93,62 %
06.04.2017 13:44 9,3 C 11,7 C 10,6 C 77 % 0 lf 1028,0 hPa 0,0 l/m 0 min 0 min 197 W/m 10,5 km/h (2 Bft) 95,65 %
06.04.2017 13:46 9,3 C 12,2 C 10,6 C 77 % 0 lf 1028,0 hPa 0,0 l/m 0 min 0 min 203 W/m 8,4 km/h (2 Bft) 95,74 %
06.04.2017 13:48 9,3 C 12,2 C 11,1 C 78 % 0 lf 1028,0 hPa 0,0 l/m 0 min 0 min 199 W/m 10,5 km/h (2 Bft) 91,49 %
06.04.2017 13:50 9,4 C 11,7 C 10,6 C 78 % 0 lf 1028,0 hPa 0,0 l/m 0 min 0 min 205 W/m 12,6 km/h (3 Bft) 97,87 %
06.04.2017 13:52 9,4 C 11,7 C 10,6 C 78 % 0 lf 1028,0 hPa 0,0 l/m 0 min 0 min 233 W/m 14,6 km/h (3 Bft) 100,00 %
06.04.2017 13:54 9,4 C 11,7 C 11,1 C 77 % 0 lf 1028,0 hPa 0,0 l/m 0 min 0 min 264 W/m 16,7 km/h (3 Bft) 100,00 %
06.04.2017 13:56 9,4 C 12,8 C 11,7 C 78 % 0 lf 1028,0 hPa 0,0 l/m 0 min 0 min 336 W/m 10,5 km/h (2 Bft) 95,65 %
06.04.2017 13:58 9,5 C 12,8 C 12,2 C 78 % 0 lf 1028,0 hPa 0,0 l/m 0 min 0 min 336 W/m 12,6 km/h (3 Bft) 100,00 %
06.04.2017 14:00 9,6 C 13,3 C 12,2 C 78 % 0 lf 1028,0 hPa 0,0 l/m 0 min 0 min 289 W/m 12,6 km/h (3 Bft) 95,74 %
06.04.2017 14:02 9,6 C 12,8 C 11,1 C 78 % 0 lf 1028,0 hPa 0,0 l/m 0 min 0 min 206 W/m 12,6 km/h (3 Bft) 100,00 %
06.04.2017 14:04 9,6 C 12,2 C 10,6 C 77 % 0 lf 1028,0 hPa 0,0 l/m 0 min 0 min 153 W/m 16,7 km/h (3 Bft) 100,00 %
06.04.2017 14:06 9,6 C 11,7 C 10,0 C 77 % 0 lf 1027,9 hPa 0,0 l/m 0 min 0 min 130 W/m 14,6 km/h (3 Bft) 95,74 %
06.04.2017 14:08 9,6 C 11,1 C 10,0 C 77 % 0 lf 1028,0 hPa 0,0 l/m 0 min 0 min 125 W/m 16,7 km/h (3 Bft) 100,00 %
06.04.2017 14:10 9,6 C 10,6 C 10,0 C 77 % 0 lf 1028,0 hPa 0,0 l/m 0 min 0 min 128 W/m 16,7 km/h (3 Bft) 97,87 %
06.04.2017 14:12 9,5 C 10,6 C 10,0 C 77 % 0 lf 1028,0 hPa 0,0 l/m 0 min 0 min 132 W/m 18,8 km/h (3 Bft) 100,00 %
06.04.2017 14:14 9,5 C 10,6 C 10,0 C 77 % 0 lf 1028,0 hPa 0,0 l/m 0 min 0 min 140 W/m 12,6 km/h (3 Bft) 100,00 %
06.04.2017 14:16 9,6 C 11,1 C 10,0 C 78 % 0 lf 1028,0 hPa 0,0 l/m 0 min 0 min 169 W/m 8,4 km/h (2 Bft) 100,00 %
06.04.2017 14:18 9,5 C 11,7 C 10,6 C 78 % 0 lf 1027,9 hPa 0,0 l/m 0 min 0 min 211 W/m 12,6 km/h (3 Bft) 100,00 %
06.04.2017 14:20 9,6 C 11,7 C 11,1 C 78 % 0 lf 1027,9 hPa 0,0 l/m 0 min 0 min 237 W/m 14,6 km/h (3 Bft) 97,83 %
06.04.2017 14:22 9,6 C 12,2 C 11,1 C 78 % 0 lf 1028,0 hPa 0,0 l/m 0 min 0 min 260 W/m 14,6 km/h (3 Bft) 95,74 %
06.04.2017 14:24 9,6 C 12,2 C 11,7 C 78 % 0 lf 1028,0 hPa 0,0 l/m 0 min 0 min 259 W/m 10,5 km/h (2 Bft) 97,87 %
06.04.2017 14:26 9,7 C 12,2 C 11,7 C 78 % 0 lf 1027,9 hPa 0,0 l/m 0 min 0 min 281 W/m 14,6 km/h (3 Bft) 100,00 %
06.04.2017 14:28 9,7 C 12,8 C 12,2 C 78 % 0 lf 1027,9 hPa 0,0 l/m 0 min 0 min 323 W/m 12,6 km/h (3 Bft) 97,87 %
06.04.2017 14:30 9,7 C 13,9 C 12,8 C 78 % 0 lf 1027,9 hPa 0,0 l/m 2 min 0 min 395 W/m 10,5 km/h (2 Bft) 100,00 %
06.04.2017 14:32 9,8 C 13,9 C 12,8 C 78 % 0 lf 1027,9 hPa 0,0 l/m 2 min 0 min 349 W/m 18,8 km/h (3 Bft) 97,83 %
06.04.2017 14:34 9,9 C 13,9 C 12,2 C 77 % 0 lf 1027,9 hPa 0,0 l/m 0 min 0 min 316 W/m 16,7 km/h (3 Bft) 97,87 %
06.04.2017 14:36 9,9 C 14,4 C 12,2 C 77 % 0 lf 1027,8 hPa 0,0 l/m 2 min 0 min 399 W/m 16,7 km/h (3 Bft) 95,74 %
06.04.2017 14:38 10,0 C 17,2 C 13,3 C 77 % 0 lf 1027,8 hPa 0,0 l/m 2 min 0 min 644 W/m 16,7 km/h (3 Bft) 97,87 %
06.04.2017 14:40 10,1 C 18,9 C 13,3 C 77 % 0 lf 1027,8 hPa 0,0 l/m 2 min 0 min 753 W/m 16,7 km/h (3 Bft) 95,74 %
06.04.2017 14:42 10,2 C 17,2 C 13,3 C 77 % 0 lf 1027,8 hPa 0,0 l/m 2 min 0 min 434 W/m 12,6 km/h (3 Bft) 93,75 %
06.04.2017 14:44 10,3 C 16,7 C 13,9 C 76 % 0 lf 1027,7 hPa 0,0 l/m 2 min 0 min 369 W/m 12,6 km/h (3 Bft) 97,87 %
06.04.2017 14:46 10,4 C 16,1 C 13,3 C 76 % 0 lf 1027,7 hPa 0,0 l/m 0 min 0 min 313 W/m 12,6 km/h (3 Bft) 95,74 %
06.04.2017 14:48 10,5 C 15,6 C 12,8 C 76 % 0 lf 1027,7 hPa 0,0 l/m 0 min 0 min 266 W/m 16,7 km/h (3 Bft) 97,87 %
06.04.2017 14:50 10,6 C 14,4 C 12,8 C 75 % 0 lf 1027,7 hPa 0,0 l/m 0 min 0 min 248 W/m 16,7 km/h (3 Bft) 93,62 %
06.04.2017 14:52 10,6 C 13,9 C 12,2 C 75 % 0 lf 1027,7 hPa 0,0 l/m 0 min 0 min 257 W/m 12,6 km/h (3 Bft) 97,83 %
06.04.2017 14:54 10,6 C 13,3 C 11,7 C 74 % 0 lf 1027,7 hPa 0,0 l/m 0 min 0 min 238 W/m 14,6 km/h (3 Bft) 93,62 %
06.04.2017 14:56 10,6 C 12,8 C 11,7 C 73 % 0 lf 1027,7 hPa 0,0 l/m 0 min 0 min 215 W/m 14,6 km/h (3 Bft) 91,49 %
06.04.2017 14:58 10,6 C 12,8 C 11,7 C 73 % 0 lf 1027,7 hPa 0,0 l/m 0 min 0 min 204 W/m 10,5 km/h (2 Bft) 95,74 %
06.04.2017 15:00 10,6 C 12,8 C 11,7 C 73 % 0 lf 1027,7 hPa 0,0 l/m 0 min 0 min 189 W/m 10,5 km/h (2 Bft) 95,74 %
06.04.2017 15:02 10,6 C 12,8 C 11,7 C 73 % 0 lf 1027,7 hPa 0,0 l/m 0 min 0 min 183 W/m 10,5 km/h (2 Bft) 93,62 %
06.04.2017 15:04 10,6 C 12,2 C 11,7 C 73 % 0 lf 1027,6 hPa 0,0 l/m 0 min 0 min 180 W/m 14,6 km/h (3 Bft) 95,65 %
06.04.2017 15:06 10,5 C 12,2 C 11,1 C 73 % 0 lf 1027,6 hPa 0,0 l/m 0 min 0 min 170 W/m 14,6 km/h (3 Bft) 93,62 %
06.04.2017 15:08 10,5 C 12,2 C 11,1 C 73 % 0 lf 1027,6 hPa 0,0 l/m 0 min 0 min 163 W/m 16,7 km/h (3 Bft) 89,36 %
06.04.2017 15:10 10,5 C 12,2 C 11,1 C 73 % 0 lf 1027,6 hPa 0,0 l/m 0 min 0 min 179 W/m 10,5 km/h (2 Bft) 95,74 %
06.04.2017 15:12 10,5 C 12,2 C 11,7 C 73 % 0 lf 1027,6 hPa 0,0 l/m 0 min 0 min 209 W/m 12,6 km/h (3 Bft) 95,74 %
06.04.2017 15:14 10,5 C 12,2 C 11,7 C 74 % 0 lf 1027,6 hPa 0,0 l/m 0 min 0 min 209 W/m 12,6 km/h (3 Bft) 97,87 %
06.04.2017 15:16 10,5 C 12,2 C 11,7 C 74 % 0 lf 1027,6 hPa 0,0 l/m 0 min 0 min 176 W/m 14,6 km/h (3 Bft) 97,83 %
06.04.2017 15:18 10,4 C 12,2 C 11,1 C 74 % 0 lf 1027,5 hPa 0,0 l/m 0 min 0 min 156 W/m 20,9 km/h (4 Bft) 95,74 %
06.04.2017 15:20 10,4 C 11,7 C 11,1 C 74 % 0 lf 1027,6 hPa 0,0 l/m 0 min 0 min 153 W/m 10,5 km/h (2 Bft) 95,74 %
06.04.2017 15:22 10,4 C 12,2 C 11,1 C 74 % 0 lf 1027,6 hPa 0,0 l/m 0 min 0 min 158 W/m 14,6 km/h (3 Bft) 97,87 %
06.04.2017 15:24 10,4 C 12,2 C 11,1 C 74 % 0 lf 1027,6 hPa 0,0 l/m 0 min 0 min 171 W/m 12,6 km/h (3 Bft) 95,74 %
06.04.2017 15:26 10,4 C 12,2 C 11,7 C 75 % 0 lf 1027,6 hPa 0,0 l/m 0 min 0 min 195 W/m 20,9 km/h (4 Bft) 95,74 %
06.04.2017 15:28 10,4 C 12,2 C 11,7 C 75 % 0 lf 1027,5 hPa 0,0 l/m 0 min 0 min 229 W/m 18,8 km/h (3 Bft) 95,65 %
06.04.2017 15:30 10,4 C 12,2 C 11,7 C 74 % 0 lf 1027,5 hPa 0,0 l/m 0 min 0 min 258 W/m 12,6 km/h (3 Bft) 97,87 %
06.04.2017 15:32 10,4 C 12,8 C 12,2 C 74 % 0 lf 1027,5 hPa 0,0 l/m 0 min 0 min 266 W/m 14,6 km/h (3 Bft) 97,87 %
06.04.2017 15:34 10,4 C 12,8 C 12,2 C 74 % 0 lf 1027,4 hPa 0,0 l/m 0 min 0 min 274 W/m 12,6 km/h (3 Bft) 100,00 %
06.04.2017 15:36 10,5 C 12,8 C 12,2 C 74 % 0 lf 1027,4 hPa 0,0 l/m 0 min 0 min 276 W/m 12,6 km/h (3 Bft) 95,74 %
06.04.2017 15:38 10,5 C 13,3 C 12,2 C 74 % 0 lf 1027,4 hPa 0,0 l/m 0 min 0 min 263 W/m 16,7 km/h (3 Bft) 100,00 %
06.04.2017 15:40 10,5 C 13,3 C 12,2 C 73 % 0 lf 1027,4 hPa 0,0 l/m 0 min 0 min 262 W/m 14,6 km/h (3 Bft) 95,74 %
06.04.2017 15:42 10,5 C 13,3 C 12,2 C 73 % 0 lf 1027,4 hPa 0,0 l/m 0 min 0 min 289 W/m 12,6 km/h (3 Bft) 100,00 %
06.04.2017 15:44 10,5 C 14,4 C 12,8 C 73 % 0 lf 1027,4 hPa 0,0 l/m 2 min 0 min 342 W/m 14,6 km/h (3 Bft) 97,87 %
06.04.2017 15:46 10,6 C 15,0 C 13,3 C 74 % 0 lf 1027,4 hPa 0,0 l/m 2 min 0 min 498 W/m 18,8 km/h (3 Bft) 100,00 %
06.04.2017 15:48 10,6 C 15,6 C 13,3 C 74 % 0 lf 1027,3 hPa 0,0 l/m 2 min 0 min 430 W/m 14,6 km/h (3 Bft) 95,74 %
06.04.2017 15:50 10,7 C 15,6 C 13,9 C 74 % 0 lf 1027,4 hPa 0,0 l/m 2 min 0 min 417 W/m 23,0 km/h (4 Bft) 97,83 %
06.04.2017 15:52 10,8 C 15,6 C 13,9 C 74 % 0 lf 1027,3 hPa 0,0 l/m 2 min 0 min 375 W/m 18,8 km/h (3 Bft) 100,00 %
06.04.2017 15:54 10,8 C 15,6 C 13,9 C 74 % 0 lf 1027,3 hPa 0,0 l/m 2 min 0 min 337 W/m 18,8 km/h (3 Bft) 100,00 %
06.04.2017 15:56 10,9 C 15,0 C 13,3 C 73 % 0 lf 1027,3 hPa 0,0 l/m 2 min 0 min 305 W/m 18,8 km/h (3 Bft) 97,87 %
06.04.2017 15:58 10,9 C 15,0 C 13,3 C 72 % 0 lf 1027,3 hPa 0,0 l/m 0 min 0 min 264 W/m 14,6 km/h (3 Bft) 97,87 %
06.04.2017 16:00 11,0 C 14,4 C 13,3 C 73 % 0 lf 1027,3 hPa 0,0 l/m 0 min 0 min 242 W/m 10,5 km/h (2 Bft) 97,87 %
06.04.2017 16:02 11,0 C 13,9 C 12,8 C 72 % 0 lf 1027,2 hPa 0,0 l/m 0 min 0 min 240 W/m 20,9 km/h (4 Bft) 95,65 %
06.04.2017 16:04 11,0 C 13,9 C 12,8 C 72 % 0 lf 1027,3 hPa 0,0 l/m 0 min 0 min 232 W/m 16,7 km/h (3 Bft) 91,49 %
06.04.2017 16:06 11,0 C 13,3 C 12,2 C 71 % 0 lf 1027,1 hPa 0,0 l/m 0 min 0 min 228 W/m 20,9 km/h (4 Bft) 95,74 %
06.04.2017 16:08 11,0 C 12,8 C 12,2 C 71 % 0 lf 1027,0 hPa 0,0 l/m 0 min 0 min 227 W/m 18,8 km/h (3 Bft) 95,74 %
06.04.2017 16:10 10,9 C 13,3 C 12,2 C 71 % 0 lf 1027,0 hPa 0,0 l/m 0 min 0 min 210 W/m 16,7 km/h (3 Bft) 95,74 %
06.04.2017 16:12 10,9 C 12,8 C 12,2 C 71 % 0 lf 1027,0 hPa 0,0 l/m 0 min 0 min 197 W/m 16,7 km/h (3 Bft) 93,62 %
06.04.2017 16:14 10,9 C 12,8 C 12,2 C 71 % 0 lf 1027,1 hPa 0,0 l/m 0 min 0 min 207 W/m 18,8 km/h (3 Bft) 95,65 %
06.04.2017 16:16 10,9 C 12,8 C 12,2 C 71 % 0 lf 1027,1 hPa 0,0 l/m 0 min 0 min 237 W/m 14,6 km/h (3 Bft) 95,74 %
06.04.2017 16:18 10,9 C 12,8 C 12,2 C 71 % 0 lf 1027,0 hPa 0,0 l/m 0 min 0 min 260 W/m 14,6 km/h (3 Bft) 95,74 %
06.04.2017 16:20 10,9 C 13,3 C 12,8 C 71 % 0 lf 1027,0 hPa 0,0 l/m 0 min 0 min 255 W/m 14,6 km/h (3 Bft) 93,62 %
06.04.2017 16:22 10,9 C 13,3 C 12,8 C 71 % 0 lf 1027,0 hPa 0,0 l/m 0 min 0 min 248 W/m 14,6 km/h (3 Bft) 93,62 %
06.04.2017 16:24 10,9 C 13,9 C 12,8 C 71 % 0 lf 1027,1 hPa 0,0 l/m 0 min 0 min 242 W/m 12,6 km/h (3 Bft) 93,62 %
06.04.2017 16:26 10,9 C 13,3 C 12,8 C 71 % 0 lf 1027,1 hPa 0,0 l/m 0 min 0 min 248 W/m 14,6 km/h (3 Bft) 93,48 %
06.04.2017 16:28 11,0 C 13,3 C 12,8 C 72 % 0 lf 1027,1 hPa 0,0 l/m 0 min 0 min 253 W/m 20,9 km/h (4 Bft) 93,62 %
06.04.2017 16:30 10,9 C 12,8 C 12,2 C 71 % 0 lf 1027,2 hPa 0,0 l/m 0 min 0 min 245 W/m 16,7 km/h (3 Bft) 95,74 %
06.04.2017 16:32 10,9 C 12,8 C 12,2 C 71 % 0 lf 1027,2 hPa 0,0 l/m 0 min 0 min 230 W/m 16,7 km/h (3 Bft) 93,62 %
06.04.2017 16:34 10,9 C 12,8 C 12,2 C 72 % 0 lf 1027,2 hPa 0,0 l/m 0 min 0 min 232 W/m 14,6 km/h (3 Bft) 95,74 %
06.04.2017 16:36 10,9 C 12,8 C 12,2 C 72 % 0 lf 1027,2 hPa 0,0 l/m 0 min 0 min 235 W/m 14,6 km/h (3 Bft) 95,74 %
06.04.2017 16:38 10,9 C 12,8 C 12,2 C 72 % 0 lf 1027,2 hPa 0,0 l/m 0 min 0 min 245 W/m 14,6 km/h (3 Bft) 93,48 %
06.04.2017 16:40 10,8 C 13,3 C 12,2 C 72 % 0 lf 1027,1 hPa 0,0 l/m 0 min 0 min 248 W/m 12,6 km/h (3 Bft) 89,36 %
06.04.2017 16:42 10,8 C 13,3 C 12,2 C 72 % 0 lf 1027,1 hPa 0,0 l/m 0 min 0 min 215 W/m 16,7 km/h (3 Bft) 95,74 %
06.04.2017 16:44 10,8 C 12,8 C 11,7 C 73 % 0 lf 1027,1 hPa 0,0 l/m 0 min 0 min 200 W/m 18,8 km/h (3 Bft) 91,49 %
06.04.2017 16:46 10,8 C 12,8 C 11,7 C 72 % 0 lf 1027,1 hPa 0,0 l/m 0 min 0 min 202 W/m 20,9 km/h (4 Bft) 93,62 %
06.04.2017 16:48 10,8 C 12,2 C 11,7 C 72 % 0 lf 1027,1 hPa 0,0 l/m 0 min 0 min 198 W/m 14,6 km/h (3 Bft) 91,49 %
06.04.2017 16:50 10,8 C 12,2 C 11,7 C 72 % 0 lf 1027,1 hPa 0,0 l/m 0 min 0 min 190 W/m 18,8 km/h (3 Bft) 93,48 %
06.04.2017 16:52 10,8 C 12,2 C 11,7 C 73 % 0 lf 1027,0 hPa 0,0 l/m 0 min 0 min 190 W/m 18,8 km/h (3 Bft) 95,74 %
06.04.2017 16:54 10,8 C 12,2 C 11,7 C 73 % 0 lf 1027,0 hPa 0,0 l/m 0 min 0 min 186 W/m 20,9 km/h (4 Bft) 89,36 %
06.04.2017 16:56 10,7 C 12,2 C 11,7 C 73 % 0 lf 1027,0 hPa 0,0 l/m 0 min 0 min 173 W/m 23,0 km/h (4 Bft) 95,74 %
06.04.2017 16:58 10,7 C 12,2 C 11,7 C 73 % 0 lf 1027,0 hPa 0,0 l/m 0 min 0 min 166 W/m 18,8 km/h (3 Bft) 93,62 %
06.04.2017 17:00 10,7 C 12,2 C 11,1 C 73 % 0 lf 1027,0 hPa 0,0 l/m 0 min 0 min 162 W/m 23,0 km/h (4 Bft) 93,62 %
06.04.2017 17:02 10,7 C 12,2 C 11,1 C 73 % 0 lf 1027,0 hPa 0,0 l/m 0 min 0 min 167 W/m 16,7 km/h (3 Bft) 93,48 %
06.04.2017 17:04 10,6 C 12,2 C 10,6 C 72 % 0 lf 1027,0 hPa 0,0 l/m 0 min 0 min 178 W/m 18,8 km/h (3 Bft) 97,87 %
06.04.2017 17:06 10,6 C 12,2 C 11,1 C 72 % 0 lf 1027,0 hPa 0,0 l/m 0 min 0 min 195 W/m 14,6 km/h (3 Bft) 97,87 %
06.04.2017 17:08 10,6 C 12,2 C 11,1 C 72 % 0 lf 1026,9 hPa 0,0 l/m 0 min 0 min 194 W/m 14,6 km/h (3 Bft) 97,87 %
06.04.2017 17:10 10,5 C 12,2 C 11,1 C 72 % 0 lf 1027,0 hPa 0,0 l/m 0 min 0 min 174 W/m 14,6 km/h (3 Bft) 93,62 %
06.04.2017 17:12 10,5 C 12,2 C 11,1 C 73 % 0 lf 1026,9 hPa 0,0 l/m 0 min 0 min 175 W/m 16,7 km/h (3 Bft) 93,48 %
06.04.2017 17:14 10,5 C 12,2 C 10,6 C 73 % 0 lf 1026,9 hPa 0,0 l/m 0 min 0 min 210 W/m 16,7 km/h (3 Bft) 97,87 %
06.04.2017 17:16 10,4 C 12,2 C 10,6 C 73 % 0 lf 1026,9 hPa 0,0 l/m 0 min 0 min 212 W/m 16,7 km/h (3 Bft) 95,74 %
06.04.2017 17:18 10,4 C 12,2 C 10,6 C 73 % 0 lf 1026,9 hPa 0,0 l/m 0 min 0 min 215 W/m 18,8 km/h (3 Bft) 95,74 %
06.04.2017 17:20 10,4 C 12,2 C 10,6 C 73 % 0 lf 1026,9 hPa 0,0 l/m 2 min 0 min 225 W/m 16,7 km/h (3 Bft) 97,87 %
06.04.2017 17:22 10,4 C 12,2 C 11,1 C 73 % 0 lf 1026,9 hPa 0,0 l/m 2 min 0 min 223 W/m 12,6 km/h (3 Bft) 100,00 %
06.04.2017 17:24 10,4 C 12,2 C 10,6 C 73 % 0 lf 1026,9 hPa 0,0 l/m 2 min 0 min 218 W/m 14,6 km/h (3 Bft) 100,00 %
06.04.2017 17:26 10,4 C 12,2 C 10,6 C 73 % 0 lf 1026,9 hPa 0,0 l/m 2 min 0 min 215 W/m 16,7 km/h (3 Bft) 100,00 %
06.04.2017 17:28 10,4 C 12,8 C 11,1 C 73 % 0 lf 1026,9 hPa 0,0 l/m 2 min 0 min 211 W/m 12,6 km/h (3 Bft) 100,00 %
06.04.2017 17:30 10,4 C 12,8 C 11,1 C 73 % 0 lf 1026,9 hPa 0,0 l/m 0 min 0 min 185 W/m 10,5 km/h (2 Bft) 95,74 %
06.04.2017 17:32 10,4 C 12,2 C 10,6 C 73 % 0 lf 1026,9 hPa 0,0 l/m 0 min 0 min 155 W/m 12,6 km/h (3 Bft) 95,74 %
06.04.2017 17:34 10,4 C 12,2 C 10,6 C 73 % 0 lf 1026,8 hPa 0,0 l/m 0 min 0 min 128 W/m 10,5 km/h (2 Bft) 97,87 %
06.04.2017 17:36 10,4 C 11,7 C 10,0 C 73 % 0 lf 1026,8 hPa 0,0 l/m 0 min 0 min 110 W/m 23,0 km/h (4 Bft) 95,65 %
06.04.2017 17:38 10,4 C 11,7 C 10,0 C 73 % 0 lf 1026,9 hPa 0,0 l/m 0 min 0 min 109 W/m 14,6 km/h (3 Bft) 97,87 %
06.04.2017 17:40 10,3 C 11,7 C 10,0 C 73 % 0 lf 1026,9 hPa 0,0 l/m 0 min 0 min 136 W/m 14,6 km/h (3 Bft) 95,74 %
06.04.2017 17:42 10,3 C 11,7 C 10,0 C 73 % 0 lf 1026,7 hPa 0,0 l/m 0 min 0 min 177 W/m 14,6 km/h (3 Bft) 95,74 %
06.04.2017 17:44 10,3 C 11,7 C 10,6 C 74 % 0 lf 1026,7 hPa 0,0 l/m 2 min 0 min 203 W/m 12,6 km/h (3 Bft) 93,62 %
06.04.2017 17:46 10,3 C 12,2 C 10,6 C 74 % 0 lf 1026,7 hPa 0,0 l/m 2 min 0 min 193 W/m 12,6 km/h (3 Bft) 95,74 %
06.04.2017 17:48 10,3 C 12,2 C 11,1 C 74 % 0 lf 1026,7 hPa 0,0 l/m 2 min 0 min 189 W/m 12,6 km/h (3 Bft) 97,83 %
06.04.2017 17:50 10,3 C 12,8 C 11,1 C 74 % 0 lf 1026,7 hPa 0,0 l/m 2 min 0 min 192 W/m 10,5 km/h (2 Bft) 97,87 %
06.04.2017 17:52 10,3 C 12,8 C 11,1 C 74 % 0 lf 1026,7 hPa 0,0 l/m 2 min 0 min 184 W/m 10,5 km/h (2 Bft) 93,62 %
06.04.2017 17:54 10,3 C 12,8 C 11,1 C 74 % 0 lf 1026,7 hPa 0,0 l/m 0 min 0 min 174 W/m 16,7 km/h (3 Bft) 97,87 %
06.04.2017 17:56 10,3 C 12,8 C 10,6 C 74 % 0 lf 1026,7 hPa 0,0 l/m 0 min 0 min 170 W/m 16,7 km/h (3 Bft) 97,87 %
06.04.2017 17:58 10,4 C 12,2 C 10,6 C 74 % 0 lf 1026,7 hPa 0,0 l/m 0 min 0 min 159 W/m 14,6 km/h (3 Bft) 93,62 %
06.04.2017 18:00 10,4 C 12,8 C 10,6 C 74 % 0 lf 1026,7 hPa 0,0 l/m 2 min 0 min 195 W/m 12,6 km/h (3 Bft) 97,83 %
06.04.2017 18:02 10,4 C 12,8 C 10,6 C 74 % 0 lf 1026,7 hPa 0,0 l/m 2 min 0 min 237 W/m 12,6 km/h (3 Bft) 95,74 %
06.04.2017 18:04 10,4 C 13,3 C 10,6 C 74 % 0 lf 1026,7 hPa 0,0 l/m 2 min 0 min 253 W/m 18,8 km/h (3 Bft) 97,87 %
06.04.2017 18:06 10,4 C 12,8 C 10,6 C 74 % 0 lf 1026,7 hPa 0,0 l/m 2 min 0 min 214 W/m 16,7 km/h (3 Bft) 97,87 %
06.04.2017 18:08 10,4 C 12,8 C 10,6 C 73 % 0 lf 1026,8 hPa 0,0 l/m 2 min 0 min 222 W/m 23,0 km/h (4 Bft) 97,22 %
06.04.2017 18:10 10,5 C 14,4 C 10,6 C 72 % 0 lf 1026,8 hPa 0,0 l/m 2 min 0 min 358 W/m 20,9 km/h (4 Bft) 95,74 %
06.04.2017 18:12 10,5 C 14,4 C 10,6 C 73 % 0 lf 1026,7 hPa 0,0 l/m 2 min 0 min 384 W/m 16,7 km/h (3 Bft) 93,62 %
06.04.2017 18:14 10,6 C 13,3 C 10,6 C 72 % 0 lf 1026,6 hPa 0,0 l/m 2 min 0 min 319 W/m 16,7 km/h (3 Bft) 97,83 %
06.04.2017 18:16 10,6 C 12,8 C 10,0 C 72 % 0 lf 1026,8 hPa 0,0 l/m 0 min 0 min 135 W/m 14,6 km/h (3 Bft) 96,00 %
06.04.2017 18:18 10,6 C 12,8 C 10,0 C 72 % 0 lf 1026,9 hPa 0,0 l/m 2 min 0 min 153 W/m 16,7 km/h (3 Bft) 97,87 %
06.04.2017 18:20 10,6 C 12,2 C 10,0 C 72 % 0 lf 1026,8 hPa 0,0 l/m 0 min 0 min 126 W/m 16,7 km/h (3 Bft) 97,87 %
06.04.2017 18:22 10,6 C 12,2 C 10,0 C 72 % 0 lf 1026,8 hPa 0,0 l/m 0 min 0 min 116 W/m 10,5 km/h (2 Bft) 97,87 %
06.04.2017 18:24 10,6 C 12,2 C 10,6 C 72 % 0 lf 1026,8 hPa 0,0 l/m 0 min 0 min 115 W/m 14,6 km/h (3 Bft) 100,00 %
06.04.2017 18:26 10,6 C 11,7 C 10,6 C 72 % 0 lf 1026,9 hPa 0,0 l/m 0 min 0 min 130 W/m 23,0 km/h (4 Bft) 95,74 %
06.04.2017 18:28 10,6 C 11,7 C 10,6 C 72 % 0 lf 1026,8 hPa 0,0 l/m 2 min 0 min 135 W/m 16,7 km/h (3 Bft) 100,00 %
06.04.2017 18:30 10,6 C 11,7 C 10,6 C 72 % 0 lf 1026,8 hPa 0,0 l/m 0 min 0 min 116 W/m 14,6 km/h (3 Bft) 97,87 %
06.04.2017 18:32 10,6 C 11,7 C 10,0 C 71 % 0 lf 1026,8 hPa 0,0 l/m 0 min 0 min 108 W/m 12,6 km/h (3 Bft) 100,00 %
06.04.2017 18:34 10,6 C 11,7 C 10,0 C 71 % 0 lf 1026,8 hPa 0,0 l/m 0 min 0 min 106 W/m 20,9 km/h (4 Bft) 100,00 %
06.04.2017 18:36 10,6 C 11,7 C 10,0 C 71 % 0 lf 1026,8 hPa 0,0 l/m 0 min 0 min 113 W/m 16,7 km/h (3 Bft) 93,48 %
06.04.2017 18:38 10,5 C 11,7 C 10,0 C 71 % 0 lf 1026,7 hPa 0,0 l/m 0 min 0 min 106 W/m 14,6 km/h (3 Bft) 97,87 %
06.04.2017 18:40 10,5 C 11,7 C 10,0 C 71 % 0 lf 1026,8 hPa 0,0 l/m 0 min 0 min 97 W/m 14,6 km/h (3 Bft) 97,87 %
06.04.2017 18:42 10,5 C 11,1 C 10,0 C 71 % 0 lf 1026,9 hPa 0,0 l/m 0 min 0 min 88 W/m 14,6 km/h (3 Bft) 100,00 %
06.04.2017 18:44 10,4 C 11,1 C 10,0 C 71 % 0 lf 1026,8 hPa 0,0 l/m 0 min 0 min 90 W/m 16,7 km/h (3 Bft) 100,00 %
06.04.2017 18:46 10,4 C 11,1 C 10,0 C 72 % 0 lf 1026,8 hPa 0,0 l/m 0 min 0 min 94 W/m 12,6 km/h (3 Bft) 95,74 %
06.04.2017 18:48 10,4 C 11,1 C 10,0 C 72 % 0 lf 1026,8 hPa 0,0 l/m 0 min 0 min 102 W/m 10,5 km/h (2 Bft) 97,83 %
06.04.2017 18:50 10,4 C 11,1 C 10,0 C 72 % 0 lf 1026,8 hPa 0,0 l/m 0 min 0 min 93 W/m 6,3 km/h (2 Bft) 95,74 %
06.04.2017 18:52 10,4 C 11,1 C 10,0 C 72 % 0 lf 1026,8 hPa 0,0 l/m 0 min 0 min 99 W/m 6,3 km/h (2 Bft) 95,74 %
06.04.2017 18:54 10,4 C 11,1 C 10,0 C 73 % 0 lf 1026,8 hPa 0,0 l/m 0 min 0 min 83 W/m 10,5 km/h (2 Bft) 95,74 %
06.04.2017 18:56 10,4 C 11,1 C 10,0 C 73 % 0 lf 1026,8 hPa 0,0 l/m 0 min 0 min 79 W/m 12,6 km/h (3 Bft) 91,49 %
06.04.2017 18:58 10,4 C 11,1 C 10,0 C 73 % 0 lf 1026,8 hPa 0,0 l/m 0 min 0 min 83 W/m 14,6 km/h (3 Bft) 95,74 %
06.04.2017 19:00 10,4 C 11,1 C 10,0 C 73 % 0 lf 1026,8 hPa 0,0 l/m 0 min 0 min 81 W/m 14,6 km/h (3 Bft) 91,30 %
06.04.2017 19:02 10,3 C 11,1 C 9,4 C 73 % 0 lf 1026,8 hPa 0,0 l/m 0 min 0 min 70 W/m 14,6 km/h (3 Bft) 93,62 %
06.04.2017 19:04 10,3 C 10,6 C 9,4 C 73 % 0 lf 1026,8 hPa 0,0 l/m 0 min 0 min 62 W/m 10,5 km/h (2 Bft) 95,74 %
06.04.2017 19:06 10,3 C 10,6 C 9,4 C 73 % 0 lf 1026,8 hPa 0,0 l/m 0 min 0 min 58 W/m 10,5 km/h (2 Bft) 95,74 %
06.04.2017 19:08 10,3 C 10,6 C 9,4 C 73 % 0 lf 1026,8 hPa 0,0 l/m 0 min 0 min 56 W/m 6,3 km/h (2 Bft) 91,49 %
06.04.2017 19:10 10,3 C 10,6 C 9,4 C 73 % 0 lf 1026,8 hPa 0,0 l/m 0 min 0 min 56 W/m 8,4 km/h (2 Bft) 93,62 %
06.04.2017 19:12 10,3 C 10,6 C 9,4 C 73 % 0 lf 1026,7 hPa 0,0 l/m 0 min 0 min 58 W/m 12,6 km/h (3 Bft) 95,65 %
06.04.2017 19:14 10,2 C 10,6 C 9,4 C 73 % 0 lf 1026,7 hPa 0,0 l/m 0 min 0 min 59 W/m 10,5 km/h (2 Bft) 95,74 %
06.04.2017 19:16 10,2 C 10,6 C 9,4 C 73 % 0 lf 1026,7 hPa 0,0 l/m 0 min 0 min 56 W/m 8,4 km/h (2 Bft) 93,62 %
06.04.2017 19:18 10,2 C 10,6 C 9,4 C 73 % 0 lf 1026,7 hPa 0,0 l/m 0 min 0 min 51 W/m 12,6 km/h (3 Bft) 95,74 %
06.04.2017 19:20 10,2 C 10,6 C 9,4 C 73 % 0 lf 1026,7 hPa 0,0 l/m 0 min 0 min 53 W/m 8,4 km/h (2 Bft) 95,74 %
06.04.2017 19:22 10,2 C 10,6 C 9,4 C 73 % 0 lf 1026,6 hPa 0,0 l/m 0 min 0 min 53 W/m 12,6 km/h (3 Bft) 97,87 %
06.04.2017 19:24 10,2 C 10,6 C 9,4 C 73 % 0 lf 1026,5 hPa 0,0 l/m 0 min 0 min 50 W/m 6,3 km/h (2 Bft) 97,83 %
06.04.2017 19:26 10,2 C 10,6 C 8,9 C 73 % 0 lf 1026,5 hPa 0,0 l/m 0 min 0 min 49 W/m 6,3 km/h (2 Bft) 97,87 %
06.04.2017 19:28 10,1 C 10,6 C 8,9 C 73 % 0 lf 1026,5 hPa 0,0 l/m 0 min 0 min 51 W/m 14,6 km/h (3 Bft) 93,62 %
06.04.2017 19:30 10,1 C 10,0 C 8,9 C 72 % 0 lf 1026,4 hPa 0,0 l/m 0 min 0 min 47 W/m 12,6 km/h (3 Bft) 97,87 %
06.04.2017 19:32 10,1 C 10,0 C 8,9 C 72 % 0 lf 1026,5 hPa 0,0 l/m 0 min 0 min 45 W/m 14,6 km/h (3 Bft) 93,62 %
06.04.2017 19:34 10,1 C 10,0 C 8,9 C 72 % 0 lf 1026,5 hPa 0,0 l/m 0 min 0 min 45 W/m 8,4 km/h (2 Bft) 97,83 %
06.04.2017 19:36 10,0 C 10,0 C 8,9 C 72 % 0 lf 1026,5 hPa 0,0 l/m 0 min 0 min 39 W/m 8,4 km/h (2 Bft) 93,62 %
06.04.2017 19:38 10,0 C 10,0 C 8,3 C 72 % 0 lf 1026,5 hPa 0,0 l/m 0 min 0 min 35 W/m 8,4 km/h (2 Bft) 96,00 %
06.04.2017 19:40 10,0 C 10,0 C 8,3 C 72 % 0 lf 1026,5 hPa 0,0 l/m 0 min 0 min 30 W/m 8,4 km/h (2 Bft) 97,87 %
06.04.2017 19:42 10,0 C 10,0 C 8,3 C 72 % 0 lf 1026,4 hPa 0,0 l/m 0 min 0 min 24 W/m 8,4 km/h (2 Bft) 97,87 %
06.04.2017 19:44 9,9 C 9,4 C 7,8 C 72 % 0 lf 1026,4 hPa 0,0 l/m 0 min 0 min 23 W/m 8,4 km/h (2 Bft) 89,36 %
06.04.2017 19:46 9,9 C 9,4 C 7,8 C 72 % 0 lf 1026,5 hPa 0,0 l/m 0 min 0 min 23 W/m 6,3 km/h (2 Bft) 97,83 %
06.04.2017 19:48 9,9 C 9,4 C 7,8 C 73 % 0 lf 1026,5 hPa 0,0 l/m 0 min 0 min 21 W/m 10,5 km/h (2 Bft) 97,87 %
06.04.2017 19:50 9,9 C 8,9 C 7,2 C 73 % 0 lf 1026,5 hPa 0,0 l/m 0 min 0 min 20 W/m 8,4 km/h (2 Bft) 97,87 %
06.04.2017 19:52 9,8 C 8,9 C 7,2 C 73 % 0 lf 1026,5 hPa 0,0 l/m 0 min 0 min 19 W/m 6,3 km/h (2 Bft) 96,00 %
06.04.2017 19:54 9,8 C 8,9 C 7,2 C 73 % 0 lf 1026,6 hPa 0,0 l/m 0 min 0 min 20 W/m 10,5 km/h (2 Bft) 95,74 %
06.04.2017 19:56 9,8 C 8,9 C 7,2 C 73 % 0 lf 1026,6 hPa 0,0 l/m 0 min 0 min 19 W/m 8,4 km/h (2 Bft) 97,83 %
06.04.2017 19:58 9,7 C 8,9 C 7,2 C 72 % 0 lf 1026,6 hPa 0,0 l/m 0 min 0 min 18 W/m 8,4 km/h (2 Bft) 97,87 %
06.04.2017 20:00 9,7 C 8,9 C 7,2 C 72 % 0 lf 1026,6 hPa 0,0 l/m 0 min 0 min 17 W/m 10,5 km/h (2 Bft) 97,73 %
06.04.2017 20:02 9,7 C 8,9 C 7,2 C 73 % 0 lf 1026,6 hPa 0,0 l/m 0 min 0 min 14 W/m 6,3 km/h (2 Bft) 93,62 %
06.04.2017 20:04 9,7 C 8,9 C 7,2 C 73 % 0 lf 1026,6 hPa 0,0 l/m 0 min 0 min 12 W/m 6,3 km/h (2 Bft) 97,87 %
06.04.2017 20:06 9,6 C 8,9 C 7,2 C 73 % 0 lf 1026,7 hPa 0,0 l/m 0 min 0 min 11 W/m 6,3 km/h (2 Bft) 97,87 %
06.04.2017 20:08 9,6 C 8,9 C 7,2 C 73 % 0 lf 1026,7 hPa 0,0 l/m 0 min 0 min 11 W/m 6,3 km/h (2 Bft) 95,74 %
06.04.2017 20:10 9,6 C 8,9 C 7,2 C 73 % 0 lf 1026,7 hPa 0,0 l/m 0 min 0 min 9 W/m 4,2 km/h (1 Bft) 95,65 %
06.04.2017 20:12 9,5 C 8,3 C 7,2 C 73 % 0 lf 1026,7 hPa 0,0 l/m 0 min 0 min 9 W/m 4,2 km/h (1 Bft) 97,87 %
06.04.2017 20:14 9,5 C 8,3 C 6,7 C 73 % 0 lf 1026,6 hPa 0,0 l/m 0 min 0 min 9 W/m 4,2 km/h (1 Bft) 95,74 %
06.04.2017 20:16 9,5 C 8,3 C 6,7 C 73 % 0 lf 1026,6 hPa 0,0 l/m 0 min 0 min 7 W/m 6,3 km/h (2 Bft) 97,87 %
06.04.2017 20:18 9,4 C 8,3 C 6,7 C 73 % 0 lf 1026,6 hPa 0,0 l/m 0 min 0 min 7 W/m 4,2 km/h (1 Bft) 95,74 %
06.04.2017 20:20 9,4 C 8,3 C 6,7 C 73 % 0 lf 1026,7 hPa 0,0 l/m 0 min 0 min 7 W/m 6,3 km/h (2 Bft) 93,62 %
06.04.2017 20:22 9,4 C 8,3 C 6,1 C 73 % 0 lf 1026,8 hPa 0,0 l/m 0 min 0 min 5 W/m 4,2 km/h (1 Bft) 93,48 %
06.04.2017 20:24 9,4 C 8,3 C 6,1 C 73 % 0 lf 1026,7 hPa 0,0 l/m 0 min 0 min 5 W/m 4,2 km/h (1 Bft) 95,74 %
06.04.2017 20:26 9,3 C 8,3 C 6,1 C 73 % 0 lf 1026,7 hPa 0,0 l/m 0 min 0 min 5 W/m 2,1 km/h (1 Bft) 93,62 %
06.04.2017 20:28 9,3 C 7,8 C 6,1 C 73 % 0 lf 1026,7 hPa 0,0 l/m 0 min 0 min 4 W/m 2,1 km/h (1 Bft) 95,74 %
06.04.2017 20:30 9,3 C 7,8 C 6,1 C 74 % 0 lf 1026,7 hPa 0,0 l/m 0 min 0 min 0 W/m 0,0 km/h (0 Bft) 95,74 %
06.04.2017 20:32 9,2 C 7,8 C 6,1 C 74 % 0 lf 1026,7 hPa 0,0 l/m 0 min 0 min 0 W/m 4,2 km/h (1 Bft) 95,74 %
06.04.2017 20:34 9,2 C 7,8 C 6,1 C 74 % 0 lf 1026,7 hPa 0,0 l/m 0 min 0 min 0 W/m 2,1 km/h (1 Bft) 93,48 %
06.04.2017 20:36 9,2 C 7,8 C 6,7 C 74 % 0 lf 1026,7 hPa 0,0 l/m 0 min 0 min 0 W/m 0,0 km/h (0 Bft) 95,74 %
06.04.2017 20:38 9,1 C 7,8 C 6,7 C 74 % 0 lf 1026,7 hPa 0,0 l/m 0 min 0 min 0 W/m 0,0 km/h (0 Bft) 95,74 %
06.04.2017 20:40 9,1 C 7,8 C 6,1 C 74 % 0 lf 1026,6 hPa 0,0 l/m 0 min 0 min 0 W/m 0,0 km/h (0 Bft) 91,49 %
06.04.2017 20:42 9,1 C 7,8 C 6,1 C 74 % 0 lf 1026,6 hPa 0,0 l/m 0 min 0 min 0 W/m 0,0 km/h (0 Bft) 91,49 %
06.04.2017 20:44 9,0 C 7,8 C 6,1 C 74 % 0 lf 1026,7 hPa 0,0 l/m 0 min 0 min 0 W/m 0,0 km/h (0 Bft) 95,74 %
06.04.2017 20:46 8,9 C 7,8 C 6,1 C 75 % 0 lf 1026,7 hPa 0,0 l/m 0 min 0 min 0 W/m 0,0 km/h (0 Bft) 91,30 %
06.04.2017 20:48 8,9 C 7,8 C 5,6 C 75 % 0 lf 1026,7 hPa 0,0 l/m 0 min 0 min 0 W/m 2,1 km/h (1 Bft) 89,36 %
06.04.2017 20:50 8,9 C 7,2 C 5,6 C 75 % 0 lf 1026,7 hPa 0,0 l/m 0 min 0 min 0 W/m 2,1 km/h (1 Bft) 95,74 %
06.04.2017 20:52 8,9 C 7,2 C 5,6 C 75 % 0 lf 1026,7 hPa 0,0 l/m 0 min 0 min 1 W/m 4,2 km/h (1 Bft) 95,74 %
06.04.2017 20:54 8,8 C 7,2 C 5,6 C 75 % 0 lf 1026,8 hPa 0,0 l/m 0 min 0 min 5 W/m 4,2 km/h (1 Bft) 93,62 %
06.04.2017 20:56 8,8 C 7,2 C 6,1 C 75 % 0 lf 1026,8 hPa 0,0 l/m 0 min 0 min 5 W/m 4,2 km/h (1 Bft) 95,74 %
06.04.2017 20:58 8,8 C 7,2 C 6,1 C 75 % 0 lf 1026,7 hPa 0,0 l/m 0 min 0 min 4 W/m 4,2 km/h (1 Bft) 95,65 %
06.04.2017 21:00 8,7 C 7,2 C 6,1 C 75 % 0 lf 1026,8 hPa 0,0 l/m 0 min 0 min 0 W/m 2,1 km/h (1 Bft) 95,74 %
06.04.2017 21:02 8,7 C 7,2 C 6,1 C 75 % 0 lf 1026,8 hPa 0,0 l/m 0 min 0 min 0 W/m 2,1 km/h (1 Bft) 93,62 %
06.04.2017 21:04 8,7 C 7,2 C 6,1 C 75 % 0 lf 1026,8 hPa 0,0 l/m 0 min 0 min 0 W/m 2,1 km/h (1 Bft) 93,62 %
06.04.2017 21:06 8,6 C 7,2 C 5,6 C 75 % 0 lf 1026,7 hPa 0,0 l/m 0 min 0 min 0 W/m 2,1 km/h (1 Bft) 95,74 %
06.04.2017 21:08 8,6 C 7,2 C 5,6 C 75 % 0 lf 1026,8 hPa 0,0 l/m 0 min 0 min 0 W/m 2,1 km/h (1 Bft) 95,74 %
06.04.2017 21:10 8,6 C 7,2 C 5,6 C 75 % 0 lf 1026,8 hPa 0,0 l/m 0 min 0 min 0 W/m 2,1 km/h (1 Bft) 91,30 %
06.04.2017 21:12 8,6 C 7,2 C 5,6 C 76 % 0 lf 1026,8 hPa 0,0 l/m 0 min 0 min 0 W/m 2,1 km/h (1 Bft) 97,87 %
06.04.2017 21:14 8,5 C 7,2 C 5,0 C 76 % 0 lf 1026,8 hPa 0,0 l/m 0 min 0 min 0 W/m 4,2 km/h (1 Bft) 95,74 %
06.04.2017 21:16 8,4 C 7,2 C 5,0 C 75 % 0 lf 1026,9 hPa 0,0 l/m 0 min 0 min 0 W/m 4,2 km/h (1 Bft) 97,87 %
06.04.2017 21:18 8,4 C 6,7 C 5,0 C 76 % 0 lf 1026,8 hPa 0,0 l/m 0 min 0 min 0 W/m 4,2 km/h (1 Bft) 100,00 %
06.04.2017 21:20 8,4 C 6,7 C 5,0 C 76 % 0 lf 1026,8 hPa 0,0 l/m 0 min 0 min 0 W/m 2,1 km/h (1 Bft) 100,00 %
06.04.2017 21:22 8,3 C 6,7 C 5,0 C 76 % 0 lf 1026,8 hPa 0,0 l/m 0 min 0 min 0 W/m 2,1 km/h (1 Bft) 95,74 %
06.04.2017 21:24 8,3 C 6,7 C 4,4 C 76 % 0 lf 1026,9 hPa 0,0 l/m 0 min 0 min 0 W/m 4,2 km/h (1 Bft) 100,00 %
06.04.2017 21:26 8,3 C 6,7 C 4,4 C 76 % 0 lf 1027,0 hPa 0,0 l/m 0 min 0 min 0 W/m 4,2 km/h (1 Bft) 95,74 %
06.04.2017 21:28 8,2 C 6,7 C 4,4 C 76 % 0 lf 1026,9 hPa 0,0 l/m 0 min 0 min 0 W/m 4,2 km/h (1 Bft) 97,87 %
06.04.2017 21:30 8,2 C 6,7 C 4,4 C 76 % 0 lf 1027,0 hPa 0,0 l/m 0 min 0 min 0 W/m 4,2 km/h (1 Bft) 100,00 %
06.04.2017 21:32 8,2 C 6,1 C 4,4 C 76 % 0 lf 1027,0 hPa 0,0 l/m 0 min 0 min 0 W/m 2,1 km/h (1 Bft) 93,62 %
06.04.2017 21:34 8,1 C 6,1 C 4,4 C 76 % 0 lf 1027,0 hPa 0,0 l/m 0 min 0 min 0 W/m 4,2 km/h (1 Bft) 97,83 %
06.04.2017 21:36 8,1 C 6,1 C 4,4 C 76 % 0 lf 1026,9 hPa 0,0 l/m 0 min 0 min 0 W/m 4,2 km/h (1 Bft) 97,87 %
06.04.2017 21:38 8,0 C 6,1 C 4,4 C 76 % 0 lf 1027,0 hPa 0,0 l/m 0 min 0 min 0 W/m 4,2 km/h (1 Bft) 97,87 %
06.04.2017 21:40 8,0 C 6,1 C 3,9 C 77 % 0 lf 1027,0 hPa 0,0 l/m 0 min 0 min 2 W/m 4,2 km/h (1 Bft) 97,87 %
06.04.2017 21:42 7,9 C 6,1 C 3,9 C 77 % 0 lf 1027,0 hPa 0,0 l/m 0 min 0 min 3 W/m 4,2 km/h (1 Bft) 95,74 %
06.04.2017 21:44 7,9 C 5,6 C 3,9 C 77 % 0 lf 1027,0 hPa 0,0 l/m 0 min 0 min 0 W/m 0,0 km/h (0 Bft) 93,48 %
06.04.2017 21:46 7,8 C 5,6 C 3,9 C 77 % 0 lf 1027,0 hPa 0,0 l/m 0 min 0 min 0 W/m 2,1 km/h (1 Bft) 95,74 %
06.04.2017 21:48 7,8 C 5,6 C 3,9 C 77 % 0 lf 1027,1 hPa 0,0 l/m 0 min 0 min 0 W/m 0,0 km/h (0 Bft) 93,62 %
06.04.2017 21:50 7,7 C 5,6 C 3,9 C 77 % 0 lf 1027,1 hPa 0,0 l/m 0 min 0 min 0 W/m 0,0 km/h (0 Bft) 97,87 %
06.04.2017 21:52 7,7 C 5,6 C 3,9 C 77 % 0 lf 1027,0 hPa 0,0 l/m 0 min 0 min 0 W/m 2,1 km/h (1 Bft) 97,87 %
06.04.2017 21:54 7,7 C 5,6 C 3,9 C 78 % 0 lf 1027,1 hPa 0,0 l/m 0 min 0 min 0 W/m 0,0 km/h (0 Bft) 97,87 %
06.04.2017 21:56 7,6 C 5,6 C 3,9 C 78 % 0 lf 1027,1 hPa 0,0 l/m 0 min 0 min 0 W/m 2,1 km/h (1 Bft) 95,65 %
06.04.2017 21:58 7,6 C 5,6 C 3,9 C 78 % 0 lf 1027,1 hPa 0,0 l/m 0 min 0 min 0 W/m 0,0 km/h (0 Bft) 93,62 %
06.04.2017 22:00 7,5 C 5,6 C 3,9 C 78 % 0 lf 1027,1 hPa 0,0 l/m 0 min 0 min 0 W/m 2,1 km/h (1 Bft) 97,87 %
06.04.2017 22:02 7,4 C 5,6 C 3,9 C 78 % 0 lf 1027,1 hPa 0,0 l/m 0 min 0 min 0 W/m 2,1 km/h (1 Bft) 95,74 %
06.04.2017 22:04 7,4 C 5,6 C 3,9 C 78 % 0 lf 1027,1 hPa 0,0 l/m 0 min 0 min 0 W/m 4,2 km/h (1 Bft) 95,74 %
06.04.2017 22:06 7,4 C 5,6 C 3,9 C 78 % 0 lf 1027,1 hPa 0,0 l/m 0 min 0 min 0 W/m 2,1 km/h (1 Bft) 97,87 %
06.04.2017 22:08 7,3 C 5,6 C 3,9 C 79 % 0 lf 1027,2 hPa 0,0 l/m 0 min 0 min 1 W/m 2,1 km/h (1 Bft) 97,83 %
06.04.2017 22:10 7,3 C 5,6 C 3,9 C 79 % 0 lf 1027,0 hPa 0,0 l/m 0 min 0 min 5 W/m 2,1 km/h (1 Bft) 97,87 %
06.04.2017 22:12 7,2 C 5,6 C 3,9 C 79 % 0 lf 1027,1 hPa 0,0 l/m 0 min 0 min 5 W/m 2,1 km/h (1 Bft) 95,74 %
06.04.2017 22:14 7,2 C 5,6 C 3,9 C 79 % 0 lf 1027,1 hPa 0,0 l/m 0 min 0 min 5 W/m 2,1 km/h (1 Bft) 97,87 %
06.04.2017 22:16 7,2 C 5,6 C 3,3 C 79 % 0 lf 1027,1 hPa 0,0 l/m 0 min 0 min 5 W/m 4,2 km/h (1 Bft) 100,00 %
06.04.2017 22:18 7,1 C 5,6 C 3,3 C 79 % 0 lf 1027,1 hPa 0,0 l/m 0 min 0 min 5 W/m 4,2 km/h (1 Bft) 100,00 %
06.04.2017 22:20 7,1 C 5,6 C 3,3 C 79 % 0 lf 1027,1 hPa 0,0 l/m 0 min 0 min 5 W/m 4,2 km/h (1 Bft) 100,00 %
06.04.2017 22:22 7,1 C 5,6 C 3,3 C 79 % 0 lf 1027,2 hPa 0,0 l/m 0 min 0 min 5 W/m 4,2 km/h (1 Bft) 97,87 %
06.04.2017 22:24 6,9 C 5,0 C 3,3 C 79 % 0 lf 1027,2 hPa 0,0 l/m 0 min 0 min 5 W/m 4,2 km/h (1 Bft) 100,00 %
06.04.2017 22:26 6,9 C 5,0 C 3,3 C 79 % 0 lf 1027,2 hPa 0,0 l/m 0 min 0 min 4 W/m 4,2 km/h (1 Bft) 97,87 %
06.04.2017 22:28 6,9 C 5,0 C 3,3 C 80 % 0 lf 1027,2 hPa 0,0 l/m 0 min 0 min 0 W/m 6,3 km/h (2 Bft) 95,74 %
06.04.2017 22:30 6,8 C 5,0 C 3,9 C 80 % 0 lf 1027,2 hPa 0,0 l/m 0 min 0 min 0 W/m 6,3 km/h (2 Bft) 97,83 %
06.04.2017 22:32 6,8 C 5,0 C 3,9 C 80 % 0 lf 1027,2 hPa 0,0 l/m 0 min 0 min 0 W/m 4,2 km/h (1 Bft) 95,74 %
06.04.2017 22:34 6,8 C 5,6 C 3,9 C 80 % 0 lf 1027,2 hPa 0,0 l/m 0 min 0 min 2 W/m 4,2 km/h (1 Bft) 93,62 %
06.04.2017 22:36 6,7 C 5,6 C 3,9 C 80 % 0 lf 1027,2 hPa 0,0 l/m 0 min 0 min 5 W/m 6,3 km/h (2 Bft) 95,74 %
06.04.2017 22:38 6,7 C 5,6 C 4,4 C 80 % 0 lf 1027,2 hPa 0,0 l/m 0 min 0 min 5 W/m 6,3 km/h (2 Bft) 97,87 %
06.04.2017 22:40 6,7 C 5,6 C 4,4 C 80 % 0 lf 1027,2 hPa 0,0 l/m 0 min 0 min 5 W/m 6,3 km/h (2 Bft) 97,87 %
06.04.2017 22:42 6,6 C 6,1 C 4,4 C 81 % 0 lf 1027,2 hPa 0,0 l/m 0 min 0 min 5 W/m 4,2 km/h (1 Bft) 95,65 %
06.04.2017 22:44 6,6 C 6,1 C 4,4 C 81 % 0 lf 1027,3 hPa 0,0 l/m 0 min 0 min 1 W/m 6,3 km/h (2 Bft) 97,87 %
06.04.2017 22:46 6,6 C 6,1 C 4,4 C 81 % 0 lf 1027,2 hPa 0,0 l/m 0 min 0 min 0 W/m 4,2 km/h (1 Bft) 95,74 %
06.04.2017 22:48 6,6 C 6,1 C 4,4 C 81 % 0 lf 1027,2 hPa 0,0 l/m 0 min 0 min 0 W/m 6,3 km/h (2 Bft) 93,62 %
06.04.2017 22:50 6,6 C 6,1 C 5,0 C 81 % 0 lf 1027,2 hPa 0,0 l/m 0 min 0 min 0 W/m 4,2 km/h (1 Bft) 100,00 %
06.04.2017 22:52 6,5 C 6,1 C 5,0 C 81 % 0 lf 1027,2 hPa 0,0 l/m 0 min 0 min 0 W/m 4,2 km/h (1 Bft) 91,49 %
06.04.2017 22:54 6,5 C 6,1 C 5,0 C 82 % 0 lf 1027,3 hPa 0,0 l/m 0 min 0 min 0 W/m 6,3 km/h (2 Bft) 97,83 %
06.04.2017 22:56 6,5 C 6,1 C 5,0 C 82 % 0 lf 1027,2 hPa 0,0 l/m 0 min 0 min 0 W/m 4,2 km/h (1 Bft) 97,87 %
06.04.2017 22:58 6,5 C 6,7 C 5,0 C 82 % 0 lf 1027,2 hPa 0,0 l/m 0 min 0 min 0 W/m 4,2 km/h (1 Bft) 97,87 %
06.04.2017 23:00 6,4 C 6,7 C 5,0 C 82 % 0 lf 1027,2 hPa 0,0 l/m 0 min 0 min 0 W/m 4,2 km/h (1 Bft) 97,87 %
06.04.2017 23:02 6,5 C 6,7 C 5,0 C 82 % 0 lf 1027,2 hPa 0,0 l/m 0 min 0 min 0 W/m 4,2 km/h (1 Bft) 100,00 %
06.04.2017 23:04 6,5 C 6,7 C 5,0 C 83 % 0 lf 1027,2 hPa 0,0 l/m 0 min 0 min 0 W/m 4,2 km/h (1 Bft) 100,00 %
06.04.2017 23:06 6,4 C 6,7 C 5,0 C 83 % 0 lf 1027,2 hPa 0,0 l/m 0 min 0 min 0 W/m 4,2 km/h (1 Bft) 100,00 %
06.04.2017 23:08 6,4 C 6,7 C 5,0 C 83 % 0 lf 1027,2 hPa 0,0 l/m 0 min 0 min 0 W/m 4,2 km/h (1 Bft) 95,74 %
06.04.2017 23:10 6,4 C 6,7 C 5,0 C 83 % 0 lf 1027,2 hPa 0,0 l/m 0 min 0 min 0 W/m 4,2 km/h (1 Bft) 100,00 %
06.04.2017 23:12 6,4 C 6,7 C 5,6 C 83 % 0 lf 1027,2 hPa 0,0 l/m 0 min 0 min 0 W/m 6,3 km/h (2 Bft) 100,00 %
06.04.2017 23:14 6,4 C 6,7 C 5,6 C 84 % 0 lf 1027,2 hPa 0,0 l/m 0 min 0 min 0 W/m 6,3 km/h (2 Bft) 100,00 %
06.04.2017 23:16 6,5 C 6,7 C 5,6 C 84 % 0 lf 1027,2 hPa 0,0 l/m 0 min 0 min 0 W/m 4,2 km/h (1 Bft) 100,00 %
06.04.2017 23:18 6,5 C 6,7 C 5,6 C 84 % 0 lf 1027,2 hPa 0,0 l/m 0 min 0 min 0 W/m 4,2 km/h (1 Bft) 100,00 %
06.04.2017 23:20 6,5 C 6,7 C 5,6 C 84 % 0 lf 1027,2 hPa 0,0 l/m 0 min 0 min 0 W/m 4,2 km/h (1 Bft) 100,00 %
06.04.2017 23:22 6,5 C 6,7 C 5,6 C 84 % 0 lf 1027,2 hPa 0,0 l/m 0 min 0 min 0 W/m 4,2 km/h (1 Bft) 97,87 %
06.04.2017 23:24 6,5 C 6,7 C 5,6 C 84 % 0 lf 1027,2 hPa 0,0 l/m 0 min 0 min 0 W/m 4,2 km/h (1 Bft) 95,74 %
06.04.2017 23:26 6,5 C 6,7 C 5,6 C 84 % 0 lf 1027,2 hPa 0,0 l/m 0 min 0 min 0 W/m 4,2 km/h (1 Bft) 100,00 %
06.04.2017 23:28 6,5 C 6,7 C 5,6 C 84 % 0 lf 1027,2 hPa 0,0 l/m 0 min 0 min 0 W/m 4,2 km/h (1 Bft) 100,00 %
06.04.2017 23:30 6,6 C 6,7 C 5,6 C 85 % 0 lf 1027,2 hPa 0,0 l/m 0 min 0 min 0 W/m 2,1 km/h (1 Bft) 100,00 %
06.04.2017 23:32 6,6 C 6,7 C 5,6 C 85 % 0 lf 1027,2 hPa 0,0 l/m 0 min 0 min 0 W/m 2,1 km/h (1 Bft) 100,00 %
06.04.2017 23:34 6,6 C 6,7 C 5,6 C 85 % 0 lf 1027,1 hPa 0,0 l/m 0 min 0 min 0 W/m 6,3 km/h (2 Bft) 97,87 %
06.04.2017 23:36 6,6 C 6,7 C 5,6 C 85 % 0 lf 1027,1 hPa 0,0 l/m 0 min 0 min 0 W/m 6,3 km/h (2 Bft) 95,74 %
06.04.2017 23:38 6,6 C 6,7 C 5,6 C 85 % 0 lf 1027,1 hPa 0,0 l/m 0 min 0 min 0 W/m 4,2 km/h (1 Bft) 95,74 %
06.04.2017 23:40 6,6 C 6,7 C 5,6 C 85 % 0 lf 1027,1 hPa 0,0 l/m 0 min 0 min 0 W/m 4,2 km/h (1 Bft) 95,65 %
06.04.2017 23:42 6,6 C 6,7 C 5,6 C 85 % 0 lf 1027,1 hPa 0,0 l/m 0 min 0 min 0 W/m 4,2 km/h (1 Bft) 97,87 %
06.04.2017 23:44 6,6 C 6,7 C 5,6 C 85 % 0 lf 1027,1 hPa 0,0 l/m 0 min 0 min 0 W/m 2,1 km/h (1 Bft) 95,74 %
06.04.2017 23:46 6,6 C 6,7 C 5,6 C 85 % 0 lf 1027,1 hPa 0,0 l/m 0 min 0 min 0 W/m 2,1 km/h (1 Bft) 97,87 %
06.04.2017 23:48 6,6 C 6,7 C 5,6 C 85 % 0 lf 1027,1 hPa 0,0 l/m 0 min 0 min 0 W/m 2,1 km/h (1 Bft) 97,87 %
06.04.2017 23:50 6,6 C 6,7 C 5,6 C 85 % 0 lf 1027,0 hPa 0,0 l/m 0 min 0 min 0 W/m 2,1 km/h (1 Bft) 93,62 %
06.04.2017 23:52 6,6 C 6,7 C 5,6 C 85 % 0 lf 1027,0 hPa 0,0 l/m 0 min 0 min 0 W/m 2,1 km/h (1 Bft) 97,83 %
06.04.2017 23:54 6,6 C 6,7 C 5,0 C 85 % 0 lf 1027,1 hPa 0,0 l/m 0 min 0 min 0 W/m 2,1 km/h (1 Bft) 97,87 %
06.04.2017 23:56 6,7 C 6,7 C 5,0 C 86 % 0 lf 1027,1 hPa 0,0 l/m 0 min 0 min 0 W/m 4,2 km/h (1 Bft) 91,49 %
06.04.2017 23:58 6,7 C 6,7 C 5,0 C 86 % 0 lf 1027,1 hPa 0,0 l/m 0 min 0 min 0 W/m 4,2 km/h (1 Bft) 95,74 %
_ Min-Zeit 02:50 02:30 02:24 16:06 00:00 03:10 - - - - 20:30 00:18
Minimum _ 5,1 C 3,9 C 2,2 C 71 % 0 lf 1025,6 hPa - - - - 0,0 km/h (0 Bft) 84,78 %
_ Max-Zeit 16:00 14:40 14:44 08:30 00:52 12:24 03:38 14:30 00:50 14:40 00:54 01:16
Maximum _ 11,0 C 18,9 C 13,9 C 95 % 15 lf 1028,2 hPa 0,2 l/m 2 min 2 min 753 W/m 31,4 km/h
NW (5 Bft)
100,00 %
Durchschnitt _ 7,7 C 8,5 C 7,0 C 83 % 4 lf 1026,8 hPa #0,2 l/m #1:08 h #32 min. 147 W/m 10,1 km/h (2 Bft) 96,03 %
© 2017 W. Hausmann